CW1648 Weather Reports


time (UTC)temp
C
wind
direction
speed
KPH
gust
KPH
rain 1hr
cm
rain 24hr
cm
rain mn
cm
humidity
%
barometer
mb
20260901150318 26 209 0.0 0.0 0.00 0.08 0.03 85 1013.1
20260901150217 26 209 0.0 0.0 0.00 0.08 0.03 85 1013.1
20260901150145 26 209 0.0 0.0 0.00 0.08 0.03 85 1013.1
20260901150026 26 209 0.0 0.0 0.00 0.08 0.03 85 1013.1
20260901150022 26 209 0.0 0.0 0.00 0.08 0.03 85 1013.1
20260901145837 26 209 0.0 0.0 0.00 0.08 0.03 85 1013.1
20260901145723 26 209 0.0 0.0 0.00 0.08 0.03 85 1013.1
20260901145536 26 209 0.0 0.0 0.00 0.08 0.03 85 1013.1
20260901145514 26 209 0.0 0.0 0.00 0.08 0.03 85 1013.1
20260901145413 26 209 0.0 0.0 0.00 0.08 0.03 86 1013.1
20260901145313 26 209 0.0 0.0 0.00 0.08 0.03 86 1013.1
20260901145213 26 209 0.0 0.0 0.00 0.08 0.03 86 1013.1
20260901145112 26 209 0.0 0.0 0.00 0.08 0.03 86 1013.0
20260901145021 26 209 0.0 0.0 0.00 0.08 0.03 86 1013.0
20260901145017 26 209 0.0 0.0 0.00 0.08 0.03 86 1013.0
20260901145012 26 209 0.0 0.0 0.00 0.08 0.03 86 1013.0
20260901144924 26 209 0.0 0.0 0.00 0.08 0.03 87 1012.9
20260901144920 26 209 0.0 0.0 0.00 0.08 0.03 86 1013.0
20260901144710 26 211 0.0 0.0 0.00 0.08 0.03 87 1012.9
20260901144609 26 211 0.0 0.0 0.00 0.08 0.03 87 1012.8
20260901144521 26 211 0.0 0.0 0.00 0.08 0.03 87 1011.9
20260901144508 26 211 0.0 0.0 0.00 0.08 0.03 87 1012.6
20260901144408 26 211 0.0 0.0 0.00 0.08 0.03 87 1011.9
20260901144308 26 211 0.0 0.0 0.00 0.08 0.03 87 1011.8
20260901144220 25 213 0.0 0.0 0.00 0.08 0.03 88 1012.6
20260901144216 26 212 0.0 0.0 0.00 0.08 0.03 87 1012.2
20260901144021 26 212 0.0 0.0 0.00 0.08 0.03 88 1012.6
20260901144014 25 213 0.0 0.0 0.00 0.08 0.03 88 1012.6
20260901144006 25 212 0.0 0.0 0.00 0.08 0.03 88 1012.6
20260901143906 25 213 0.0 0.0 0.00 0.08 0.03 88 1012.6
20260901143805 25 212 0.0 0.0 0.00 0.08 0.03 88 1012.7
20260901143705 25 213 0.0 0.0 0.00 0.08 0.03 88 1012.8
20260901143605 25 213 0.0 0.0 0.00 0.08 0.03 88 1012.7
20260901143521 25 212 0.0 0.0 0.00 0.08 0.03 88 1012.4
20260901143512 25 213 0.0 0.0 0.00 0.08 0.03 88 1012.7
20260901143504 25 212 0.0 0.0 0.00 0.08 0.03 88 1012.4
20260901143408 25 212 0.0 0.0 0.00 0.08 0.03 88 1012.2
20260901143404 25 212 0.0 0.0 0.00 0.08 0.03 88 1012.4
20260901143357 25 222 0.0 0.0 0.00 0.08 0.03 88 1012.2
20260901143351 25 213 0.0 0.0 0.00 0.08 0.03 88 1012.1
20260901143051 25 227 0.0 0.0 0.00 0.08 0.03 88 1012.5
20260901143017 25 227 0.0 0.0 0.00 0.08 0.03 88 1012.2
20260901143011 25 227 0.0 0.0 0.00 0.08 0.03 88 1012.5
20260901142801 25 227 0.0 0.0 0.00 0.08 0.03 88 1012.6
20260901142700 25 227 0.0 0.0 0.00 0.08 0.03 89 1012.6
20260901142600 25 227 0.0 0.0 0.00 0.08 0.03 89 1012.6
20260901142521 25 227 0.0 0.0 0.00 0.08 0.03 89 1012.8
20260901142508 25 227 0.0 0.0 0.00 0.08 0.03 89 1012.6
20260901142500 25 227 0.0 0.0 0.00 0.08 0.03 89 1012.8
20260901142359 25 227 0.0 0.0 0.00 0.08 0.03 89 1012.9
20260901142259 25 227 0.0 0.0 0.00 0.08 0.03 89 1013.0
20260901142158 25 227 0.0 0.0 0.00 0.08 0.03 89 1013.0
20260901142057 25 227 0.0 0.0 0.00 0.08 0.03 90 1013.0
20260901142036 25 227 0.0 0.0 0.00 0.08 0.03 90 1013.0
20260901142008 25 227 0.0 0.0 0.00 0.08 0.03 90 1013.0
20260901141958 25 227 0.0 0.0 0.00 0.08 0.03 90 1013.0
20260901141910 25 227 0.0 0.0 0.00 0.08 0.03 89 1013.0
20260901141906 25 227 0.0 0.0 0.00 0.08 0.03 90 1013.0
20260901141656 25 227 0.0 0.0 0.00 0.08 0.03 89 1013.1
20260901141555 25 227 0.0 0.0 0.00 0.08 0.03 90 1013.0
20260901141521 25 227 0.0 0.0 0.00 0.08 0.03 90 1013.0
20260901141508 25 227 0.0 0.0 0.00 0.08 0.03 90 1013.0
20260901141454 25 227 0.0 0.0 0.00 0.08 0.03 90 1013.0
20260901141354 25 227 0.0 0.0 0.00 0.08 0.03 90 1013.1
20260901141254 25 227 0.0 0.0 0.00 0.08 0.03 90 1013.1
20260901141153 25 227 0.0 0.0 0.00 0.08 0.03 91 1013.1
20260901141053 25 227 0.0 0.0 0.00 0.08 0.03 91 1013.0
20260901141021 25 227 0.0 0.0 0.00 0.08 0.03 91 1013.0
20260901141006 25 227 0.0 0.0 0.00 0.08 0.03 91 1013.0
20260901140952 25 227 0.0 0.0 0.00 0.08 0.03 91 1013.0
20260901140851 25 227 0.0 0.0 0.00 0.08 0.03 92 1013.0
20260901140836 25 226 0.0 0.0 0.00 0.08 0.03 92 1012.9
20260901140651 25 226 0.0 0.0 0.00 0.08 0.03 92 1012.8
20260901140615 25 226 0.0 0.0 0.00 0.08 0.03 92 1012.8
20260901140521 25 226 0.0 0.0 0.00 0.08 0.03 92 1012.8
20260901140450 25 226 0.0 0.0 0.00 0.08 0.03 92 1012.8
20260901140350 25 226 0.0 0.0 0.00 0.08 0.03 92 1012.8
20260901140322 25 223 0.0 0.0 0.00 0.08 0.03 94 1012.8
20260901140248 25 226 0.0 0.0 0.00 0.08 0.03 93 1012.8
20260901140229 25 223 0.0 0.0 0.00 0.08 0.03 94 1012.8
20260901140225 24 250 0.0 0.0 0.00 0.08 0.03 94 1012.7
20260901140219 25 223 0.0 0.0 0.00 0.08 0.03 93 1012.6
20260901140210 25 223 0.0 0.0 0.00 0.08 0.03 93 1012.7
20260901140021 25 223 0.0 0.0 0.00 0.08 0.03 94 1012.9
20260901135747 24 250 0.0 0.0 0.00 0.08 0.03 94 1010.6
20260901135646 24 250 0.0 0.0 0.00 0.08 0.03 94 1010.6
20260901135545 24 249 0.0 0.0 0.00 0.08 0.03 95 1010.8
20260901135521 24 249 0.0 0.0 0.00 0.08 0.03 95 1011.7
20260901135505 24 249 0.0 0.0 0.00 0.08 0.03 95 1011.8
20260901135445 24 249 0.0 0.0 0.00 0.08 0.03 95 1011.7
20260901135344 24 249 0.0 0.0 0.00 0.08 0.03 95 1011.7
20260901135310 24 260 0.0 0.0 0.00 0.08 0.03 95 1011.0
20260901135306 24 260 0.0 0.0 0.00 0.08 0.03 95 1010.9
20260901135021 24 260 0.0 0.0 0.00 0.08 0.03 95 1012.4
20260901135005 24 260 0.0 0.0 0.00 0.08 0.03 95 1012.4
20260901134955 24 260 0.0 0.0 0.00 0.08 0.03 95 1012.4
20260901134951 24 260 0.0 0.0 0.00 0.08 0.03 95 1012.4
20260901134753 24 260 0.0 0.0 0.00 0.08 0.03 95 1012.7
20260901134749 24 260 0.0 0.0 0.00 0.08 0.03 95 1012.5
20260901134538 23 255 0.0 0.0 0.00 0.08 0.03 95 1012.8
20260901134521 23 255 0.0 0.0 0.00 0.08 0.03 95 1013.0
20260901134511 23 257 0.0 0.0 0.00 0.08 0.03 95 1013.0
20260901134507 23 255 0.0 0.0 0.00 0.08 0.03 95 1013.0
20260901134502 23 257 0.0 0.0 0.00 0.08 0.03 95 1013.0
20260901134456 23 255 0.0 0.0 0.00 0.08 0.03 95 1013.0
20260901134137 23 257 0.0 0.0 0.00 0.08 0.03 95 1013.0
20260901134057 23 257 0.0 0.0 0.00 0.08 0.03 95 1013.1
20260901134052 23 257 0.0 0.0 0.00 0.08 0.03 95 1013.2
20260901134044 23 257 0.0 0.0 0.00 0.08 0.03 95 1013.1
20260901134021 23 257 0.0 0.0 0.00 0.08 0.03 95 1013.1
20260901133843 23 256 0.0 0.0 0.00 0.08 0.03 96 1013.1
20260901133834 23 256 0.0 0.0 0.00 0.08 0.03 96 1013.0
20260901133635 23 255 0.0 0.0 0.00 0.08 0.03 96 1012.7
20260901133612 23 261 0.0 0.0 0.00 0.08 0.03 96 1012.6
20260901133536 23 261 0.0 0.0 0.00 0.08 0.03 96 1012.4
20260901133432 23 261 0.0 0.0 0.00 0.08 0.03 96 1012.4
20260901133344 23 261 0.0 0.0 0.00 0.08 0.03 96 1012.4
20260901133231 23 261 0.0 0.0 0.00 0.08 0.03 96 1012.8
20260901133131 23 261 0.0 0.0 0.00 0.08 0.03 96 1012.9
20260901133111 23 261 0.0 0.0 0.00 0.08 0.03 96 1013.0
20260901133021 23 261 0.0 0.0 0.00 0.08 0.03 96 1013.1
20260901132930 23 261 0.0 0.0 0.00 0.08 0.03 96 1013.1
20260901132830 23 261 0.0 0.0 0.00 0.08 0.03 96 1013.1
20260901132729 23 261 0.0 0.0 0.00 0.08 0.03 96 1013.2
20260901132628 23 261 0.0 0.0 0.00 0.08 0.03 96 1013.1
20260901132527 23 261 0.0 0.0 0.00 0.08 0.03 96 1013.1
20260901132521 23 261 0.0 0.0 0.00 0.08 0.03 96 1013.2
20260901132503 23 261 0.0 0.0 0.00 0.08 0.03 96 1013.2
20260901132427 23 261 0.0 0.0 0.00 0.08 0.03 96 1013.2
20260901132327 23 261 0.0 0.0 0.00 0.08 0.03 96 1013.3
20260901132226 23 261 0.0 0.0 0.00 0.08 0.03 96 1013.2
20260901132126 23 261 0.0 0.0 0.00 0.08 0.03 96 1013.2
20260901132021 23 261 0.0 0.0 0.00 0.08 0.03 96 1013.2
20260901132002 23 261 0.0 0.0 0.00 0.08 0.03 96 1013.2
20260901131925 23 261 0.0 0.0 0.00 0.08 0.03 96 1013.2
20260901131823 23 261 0.0 0.0 0.00 0.08 0.03 96 1013.1
20260901131723 23 261 0.0 0.0 0.00 0.08 0.03 96 1013.2
20260901131623 23 261 0.0 0.0 0.00 0.08 0.03 97 1013.2
20260901131521 23 261 0.0 0.0 0.00 0.08 0.03 97 1013.3
20260901131503 23 261 0.0 0.0 0.00 0.08 0.03 97 1013.3
20260901131436 23 261 0.0 0.0 0.00 0.08 0.03 97 1013.2
20260901131430 23 261 0.0 0.0 0.00 0.08 0.03 97 1013.3
20260901131242 23 261 0.0 0.0 0.00 0.08 0.03 97 1013.2
20260901131129 23 261 0.0 0.0 0.00 0.08 0.03 97 1013.2
20260901131021 23 261 0.0 0.0 0.00 0.08 0.03 97 1013.2
20260901131001 23 261 0.0 0.0 0.00 0.08 0.03 97 1013.2
20260901130919 23 261 0.0 0.0 0.00 0.08 0.03 97 1013.2
20260901130817 23 261 0.0 0.0 0.00 0.08 0.03 97 1013.2
20260901130716 23 261 0.0 0.0 0.00 0.08 0.03 97 1013.1
20260901130615 23 261 0.0 0.0 0.00 0.08 0.03 97 1013.0
20260901130521 23 261 0.0 0.0 0.00 0.08 0.03 97 1013.1
20260901130515 23 261 0.0 0.0 0.00 0.08 0.03 97 1013.0
20260901130502 23 261 0.0 0.0 0.00 0.08 0.03 97 1013.1
20260901130429 23 261 0.0 0.0 0.00 0.08 0.03 97 1013.1
20260901130423 23 261 0.0 0.0 0.00 0.08 0.03 97 1013.1
20260901130234 23 261 0.0 0.0 0.00 0.08 0.03 97 1013.2
20260901130230 23 261 0.0 0.0 0.00 0.08 0.03 97 1013.3
20260901130224 23 261 0.0 0.0 0.00 0.08 0.03 97 1013.2
20260901130106 23 261 0.0 0.0 0.00 0.08 0.03 97 1013.3
20260901130021 23 261 0.0 0.0 0.00 0.08 0.03 97 1013.3
20260901125913 23 261 0.0 0.0 0.00 0.08 0.03 97 1013.3
20260901125825 23 261 0.0 0.0 0.00 0.08 0.03 97 1013.4
20260901125820 23 261 0.0 0.0 0.00 0.08 0.03 97 1013.4
20260901125610 23 261 0.0 0.0 0.00 0.08 0.03 97 1013.4
20260901125521 23 261 0.0 0.0 0.00 0.08 0.03 97 1013.4
20260901125509 23 261 0.0 0.0 0.00 0.08 0.03 97 1013.4
20260901125459 23 261 0.0 0.0 0.00 0.08 0.03 97 1013.4
20260901125408 23 261 0.0 0.0 0.00 0.08 0.03 97 1013.4
20260901125309 23 261 0.0 0.0 0.00 0.08 0.03 97 1013.4
20260901125208 23 261 0.0 0.0 0.00 0.08 0.03 97 1013.5
20260901125107 23 261 0.0 0.0 0.00 0.08 0.03 97 1013.4
20260901125021 23 261 0.0 0.0 0.00 0.08 0.03 97 1013.5
20260901125008 23 261 0.0 0.0 0.00 0.08 0.03 97 1013.5
20260901125001 23 261 0.0 0.0 0.00 0.08 0.03 97 1013.4
20260901124957 23 261 0.0 0.0 0.00 0.08 0.03 97 1013.5
20260901124951 23 261 0.0 0.0 0.00 0.08 0.03 97 1013.4
20260901124944 23 261 0.0 0.0 0.00 0.08 0.03 97 1013.5
20260901124605 23 261 0.0 0.0 0.00 0.08 0.03 97 1013.3
20260901124524 23 261 0.0 0.0 0.00 0.08 0.03 97 1013.3
20260901124522 23 261 0.0 0.0 0.00 0.08 0.03 97 1013.3
20260901124519 23 261 0.0 0.0 0.00 0.08 0.03 97 1013.3
20260901124512 23 261 0.0 0.0 0.00 0.08 0.03 97 1013.3
20260901124304 23 261 0.0 0.0 0.00 0.08 0.03 97 1013.3
20260901124209 23 261 0.0 0.0 0.00 0.08 0.03 97 1013.2
20260901124205 23 261 0.0 0.0 0.00 0.08 0.03 97 1013.3
20260901124158 23 261 0.0 0.0 0.00 0.08 0.03 97 1013.1
20260901124151 23 261 0.0 0.0 0.00 0.08 0.03 97 1013.2
20260901124051 23 261 0.0 0.0 0.00 0.08 0.03 97 1013.2
20260901124035 23 261 0.0 0.0 0.00 0.08 0.03 97 1013.2
20260901123924 23 261 0.0 0.0 0.00 0.08 0.03 98 1012.8
20260901123919 23 261 0.0 0.0 0.00 0.08 0.03 97 1013.1
20260901123612 23 261 0.0 0.0 0.00 0.08 0.03 97 1012.9
20260901123603 23 261 0.0 0.0 0.00 0.08 0.03 98 1012.8
20260901123521 23 261 0.0 0.0 0.00 0.08 0.03 98 1012.8
20260901123426 23 261 0.0 0.0 0.00 0.08 0.03 97 1012.8
20260901123421 23 261 0.0 0.0 0.00 0.08 0.03 97 1012.8
20260901123416 23 261 0.0 0.0 0.00 0.08 0.03 98 1012.7
20260901123114 22 261 0.0 0.0 0.00 0.08 0.03 97 1013.0
20260901123108 23 261 0.0 0.0 0.00 0.08 0.03 97 1012.9
20260901123021 22 261 0.0 0.0 0.00 0.08 0.03 97 1013.0
20260901122952 22 261 0.0 0.0 0.00 0.08 0.03 97 1013.0
20260901122857 22 261 0.0 0.0 0.00 0.08 0.03 97 1013.0
20260901122756 22 261 0.0 0.0 0.00 0.08 0.03 97 1013.1
20260901122655 22 261 0.0 0.0 0.00 0.08 0.03 97 1013.1
20260901122554 22 261 0.0 0.0 0.00 0.08 0.03 97 1013.0
20260901122521 22 261 0.0 0.0 0.00 0.08 0.03 97 1013.1
20260901122450 22 261 0.0 0.0 0.00 0.08 0.03 97 1013.1
20260901122353 22 261 0.0 0.0 0.00 0.08 0.03 97 1013.1
20260901122252 22 261 0.0 0.0 0.00 0.08 0.03 97 1013.1
20260901122222 22 261 0.0 0.0 0.00 0.08 0.03 97 1013.0
20260901122108 22 261 0.0 0.0 0.00 0.08 0.03 97 1012.9
20260901122059 22 261 0.0 0.0 0.00 0.08 0.03 97 1012.9
20260901122036 22 261 0.0 0.0 0.00 0.08 0.03 97 1012.9
20260901121947 22 261 0.0 0.0 0.00 0.08 0.03 97 1012.8
20260901121940 22 261 0.0 0.0 0.00 0.08 0.03 97 1012.9
20260901121828 22 261 0.0 0.0 0.00 0.08 0.03 97 1012.9
20260901121823 22 261 0.0 0.0 0.00 0.08 0.03 97 1012.9
20260901121522 22 261 0.0 0.0 0.00 0.08 0.03 97 1012.9
20260901121450 22 261 0.0 0.0 0.00 0.08 0.03 97 1012.9
20260901121348 21 261 0.0 0.0 0.00 0.08 0.03 97 1013.1
20260901121248 21 261 0.0 0.0 0.00 0.08 0.03 97 1013.1
20260901121146 21 261 0.0 0.0 0.00 0.08 0.03 97 1013.1
20260901121100 21 261 0.0 0.0 0.00 0.08 0.03 97 1013.2
20260901121051 21 261 0.0 0.0 0.00 0.08 0.03 97 1013.2
20260901121022 21 261 0.0 0.0 0.00 0.08 0.03 97 1013.2
20260901120845 21 261 0.0 0.0 0.00 0.08 0.03 97 1013.2
20260901120744 21 261 0.0 0.0 0.00 0.08 0.03 97 1013.2
20260901120644 21 261 0.0 0.0 0.00 0.08 0.03 97 1013.2
20260901120544 21 261 0.0 0.0 0.00 0.08 0.03 97 1013.1
20260901120521 21 261 0.0 0.0 0.00 0.08 0.03 97 1013.1
20260901120444 21 261 0.0 0.0 0.00 0.08 0.03 97 1013.1
20260901120343 21 261 0.0 0.0 0.00 0.08 0.03 97 1013.2
20260901120243 21 261 0.0 0.0 0.00 0.08 0.03 97 1013.1
20260901120143 21 261 0.0 0.0 0.00 0.08 0.03 97 1013.1
20260901120042 21 261 0.0 0.0 0.00 0.08 0.03 97 1013.2
20260901120021 21 261 0.0 0.0 0.00 0.08 0.03 97 1013.2
20260901115946 21 261 0.0 0.0 0.00 0.08 0.03 97 1013.2
20260901115939 21 261 0.0 0.0 0.00 0.08 0.03 97 1013.1
20260901115840 21 261 0.0 0.0 0.00 0.08 0.03 97 1013.1
20260901115739 21 261 0.0 0.0 0.00 0.08 0.03 97 1012.9
20260901115638 21 261 0.0 0.0 0.00 0.08 0.03 97 1012.9
20260901115538 21 261 0.0 0.0 0.00 0.08 0.03 97 1013.0
20260901115521 21 261 0.0 0.0 0.00 0.08 0.03 97 1013.1
20260901115436 21 261 0.0 0.0 0.00 0.08 0.03 97 1013.0
20260901115335 21 261 0.0 0.0 0.00 0.08 0.03 97 1013.0
20260901115233 21 261 0.0 0.0 0.00 0.08 0.03 97 1013.0
20260901115133 21 261 0.0 0.0 0.00 0.08 0.03 97 1013.0
20260901115036 21 261 0.0 0.0 0.00 0.08 0.03 97 1013.3
20260901115033 21 261 0.0 0.0 0.00 0.08 0.03 97 1013.1
20260901114931 21 261 0.0 0.0 0.00 0.08 0.03 97 1013.2
20260901114831 21 261 0.0 0.0 0.00 0.08 0.03 97 1013.1
20260901114751 21 261 0.0 0.0 0.00 0.08 0.03 97 1013.1
20260901114638 21 261 0.0 0.0 0.00 0.08 0.03 97 1013.2
20260901114521 21 261 0.0 0.0 0.00 0.08 0.03 97 1013.3
20260901114428 21 261 0.0 0.0 0.00 0.08 0.03 97 1013.2
20260901114341 21 261 0.0 0.0 0.00 0.08 0.03 97 1013.3
20260901114337 21 261 0.0 0.0 0.00 0.08 0.03 97 1013.3
20260901114128 21 261 0.0 0.0 0.00 0.08 0.03 97 1013.4
20260901114042 21 261 0.0 0.0 0.00 0.08 0.03 97 1013.4
20260901114034 21 261 0.0 0.0 0.00 0.08 0.03 97 1013.4
20260901114021 21 261 0.0 0.0 0.00 0.08 0.03 97 1013.5
20260901113826 21 261 0.0 0.0 0.00 0.08 0.03 97 1013.4
20260901113725 21 261 0.0 0.0 0.00 0.08 0.03 97 1013.5
20260901113625 21 261 0.0 0.0 0.00 0.08 0.03 97 1013.4
20260901113525 21 261 0.0 0.0 0.00 0.08 0.03 97 1013.5
20260901113521 21 261 0.0 0.0 0.00 0.08 0.03 97 1013.5
20260901113445 21 261 0.0 0.0 0.00 0.08 0.03 97 1013.4
20260901113438 21 261 0.0 0.0 0.00 0.08 0.03 97 1013.5
20260901113434 21 261 0.0 0.0 0.00 0.08 0.03 97 1013.4
20260901113237 21 261 0.0 0.0 0.00 0.08 0.03 97 1013.5
20260901113233 21 261 0.0 0.0 0.00 0.08 0.03 97 1013.5
20260901113023 21 261 0.0 0.0 0.00 0.08 0.03 97 1013.5
20260901113021 21 261 0.0 0.0 0.00 0.08 0.03 97 1013.6
20260901112940 21 261 0.0 0.0 0.00 0.08 0.03 97 1013.5
20260901112923 21 261 0.0 0.0 0.00 0.08 0.03 97 1013.5
20260901112822 21 261 0.0 0.0 0.00 0.08 0.03 97 1013.5
20260901112721 21 261 0.0 0.0 0.00 0.08 0.03 97 1013.6
20260901112634 21 261 0.0 0.0 0.00 0.08 0.03 97 1013.5
20260901112630 21 261 0.0 0.0 0.00 0.08 0.03 97 1013.6
20260901112523 21 261 0.0 0.0 0.00 0.08 0.03 97 1013.6
20260901112438 21 261 0.0 0.0 0.00 0.08 0.03 97 1013.5
20260901112420 21 261 0.0 0.0 0.00 0.08 0.03 97 1013.5
20260901112320 21 261 0.0 0.0 0.00 0.08 0.03 97 1013.6
20260901112219 21 261 0.0 0.0 0.00 0.08 0.03 97 1013.6
20260901112146 21 261 0.0 0.0 0.00 0.08 0.03 97 1013.5
20260901112032 21 261 0.0 0.0 0.00 0.08 0.03 97 1013.5
20260901112025 20 261 0.0 0.0 0.00 0.08 0.03 97 1013.5
20260901112021 21 261 0.0 0.0 0.00 0.08 0.03 97 1013.6
20260901111817 20 261 0.0 0.0 0.00 0.08 0.03 97 1013.5
20260901111717 20 261 0.0 0.0 0.00 0.08 0.03 97 1013.5
20260901111617 20 261 0.0 0.0 0.00 0.08 0.03 97 1013.5
20260901111604 20 261 0.0 0.0 0.00 0.08 0.03 97 1013.5
20260901111521 20 261 0.0 0.0 0.00 0.08 0.03 97 1013.6
20260901111445 20 261 0.0 0.0 0.00 0.08 0.03 97 1013.5
20260901111332 20 261 0.0 0.0 0.00 0.08 0.03 97 1013.5
20260901111028 20 261 0.0 0.0 0.00 0.08 0.03 97 1013.4
20260901111021 20 261 0.0 0.0 0.00 0.08 0.03 97 1013.5
20260901110812 20 261 0.0 0.0 0.00 0.08 0.03 97 1013.4
20260901110712 20 261 0.0 0.0 0.00 0.08 0.03 97 1013.4
20260901110611 20 261 0.0 0.0 0.00 0.08 0.03 97 1013.4
20260901110521 20 261 0.0 0.0 0.00 0.08 0.03 97 1013.5
20260901110511 20 261 0.0 0.0 0.00 0.08 0.03 97 1013.4
20260901110410 20 261 0.0 0.0 0.00 0.08 0.03 97 1013.4
20260901110308 20 261 0.0 0.0 0.00 0.08 0.03 97 1013.4
20260901110208 20 261 0.0 0.0 0.00 0.08 0.03 97 1013.4
20260901110107 20 261 0.0 0.0 0.00 0.08 0.03 97 1013.4
20260901110036 20 261 0.0 0.0 0.00 0.08 0.03 97 1013.5
20260901110020 20 261 0.0 0.0 0.00 0.08 0.03 97 1013.4
20260901110012 20 261 0.0 0.0 0.00 0.08 0.03 97 1013.4
20260901105806 20 261 0.0 0.0 0.00 0.08 0.03 97 1013.4
20260901105706 20 261 0.0 0.0 0.00 0.08 0.03 97 1013.3
20260901105606 20 261 0.0 0.0 0.00 0.08 0.03 97 1013.3
20260901105521 20 261 0.0 0.0 0.00 0.08 0.03 97 1013.5
20260901105505 20 261 0.0 0.0 0.00 0.08 0.03 97 1013.4
20260901105406 20 261 0.0 0.0 0.00 0.08 0.03 97 1013.4
20260901105318 20 261 0.0 0.0 0.00 0.08 0.03 97 1013.4
20260901105313 20 261 0.0 0.0 0.00 0.08 0.03 97 1013.4
20260901105131 20 261 0.0 0.0 0.00 0.08 0.03 97 1013.4
20260901105021 20 261 0.0 0.0 0.00 0.08 0.03 97 1013.5
20260901105009 20 261 0.0 0.0 0.00 0.08 0.03 97 1013.4
20260901104802 20 261 0.0 0.0 0.00 0.08 0.03 97 1013.4
20260901104702 20 261 0.0 0.0 0.00 0.08 0.03 97 1013.5
20260901104628 20 261 0.0 0.0 0.00 0.08 0.03 97 1013.5
20260901104522 20 261 0.0 0.0 0.00 0.08 0.03 97 1013.6
20260901104507 20 261 0.0 0.0 0.00 0.08 0.03 97 1013.5
20260901104300 20 261 0.0 0.0 0.00 0.08 0.03 97 1013.6
20260901104200 20 261 0.0 0.0 0.00 0.08 0.03 97 1013.5
20260901104058 20 261 0.0 0.0 0.00 0.08 0.03 97 1013.6
20260901104021 20 261 0.0 0.0 0.00 0.08 0.03 97 1013.6
20260901103930 20 261 0.0 0.0 0.00 0.08 0.03 97 1013.5
20260901103857 20 261 0.0 0.0 0.00 0.08 0.03 97 1013.5
20260901103811 20 261 0.0 0.0 0.00 0.08 0.03 97 1013.5
20260901103806 20 261 0.0 0.0 0.00 0.08 0.03 97 1013.5
20260901103556 20 261 0.0 0.0 0.00 0.08 0.03 97 1013.5
20260901103521 20 261 0.0 0.0 0.00 0.08 0.03 97 1013.6
20260901103430 20 261 0.0 0.0 0.00 0.08 0.03 97 1013.5
20260901103355 20 261 0.0 0.0 0.00 0.08 0.03 97 1013.5
20260901103255 20 261 0.0 0.0 0.00 0.08 0.03 97 1013.5
20260901103153 20 261 0.0 0.0 0.00 0.08 0.03 97 1013.5
20260901103054 20 261 0.0 0.0 0.00 0.08 0.03 97 1013.5
20260901103021 20 261 0.0 0.0 0.00 0.08 0.03 97 1013.6
20260901102928 20 261 0.0 0.0 0.00 0.08 0.03 97 1013.5
20260901102852 20 261 0.0 0.0 0.00 0.08 0.03 97 1013.5
20260901102828 20 261 0.0 0.0 0.00 0.08 0.03 97 1013.5
20260901102823 20 261 0.0 0.0 0.00 0.08 0.03 97 1013.5
20260901102600 20 261 0.0 0.0 0.00 0.08 0.03 97 1013.5
20260901102521 20 261 0.0 0.0 0.00 0.08 0.03 97 1013.6
20260901102428 20 261 0.0 0.0 0.00 0.08 0.03 97 1013.5
20260901102350 20 261 0.0 0.0 0.00 0.08 0.03 97 1013.5
20260901102249 20 261 0.0 0.0 0.00 0.08 0.03 97 1013.5
20260901102149 20 261 0.0 0.0 0.00 0.08 0.03 97 1013.4
20260901102121 20 261 0.0 0.0 0.00 0.08 0.03 97 1013.5
20260901102048 20 261 0.0 0.0 0.00 0.08 0.03 97 1013.4
20260901102007 20 261 0.0 0.0 0.00 0.08 0.03 97 1013.5
20260901101955 20 261 0.0 0.0 0.00 0.08 0.03 97 1013.4
20260901101747 20 261 0.0 0.0 0.00 0.08 0.03 97 1013.5
20260901101646 20 261 0.0 0.0 0.00 0.08 0.03 97 1013.5
20260901101557 20 261 0.0 0.0 0.00 0.08 0.03 96 1013.5
20260901101552 20 261 0.0 0.0 0.00 0.08 0.03 96 1013.5
20260901101536 20 261 0.0 0.0 0.00 0.08 0.03 97 1013.6
20260901101427 20 261 0.0 0.0 0.00 0.08 0.03 96 1013.5
20260901101343 20 261 0.0 0.0 0.00 0.08 0.03 96 1013.5
20260901101240 20 261 0.0 0.0 0.00 0.08 0.03 96 1013.4
20260901101140 20 261 0.0 0.0 0.00 0.08 0.03 96 1013.4
20260901101051 20 261 0.0 0.0 0.00 0.08 0.03 96 1013.5
20260901101039 20 261 0.0 0.0 0.00 0.08 0.03 96 1013.4
20260901100925 20 261 0.0 0.0 0.00 0.08 0.03 96 1013.4
20260901100837 20 261 0.0 0.0 0.00 0.08 0.03 96 1013.5
20260901100737 20 261 0.0 0.0 0.00 0.08 0.03 96 1013.4
20260901100634 20 261 0.0 0.0 0.00 0.08 0.03 96 1013.5
20260901100534 20 261 0.0 0.0 0.00 0.08 0.03 96 1013.5
20260901100521 20 261 0.0 0.0 0.00 0.08 0.03 96 1013.5
20260901100424 20 261 0.0 0.0 0.00 0.08 0.03 97 1013.4
20260901100332 20 261 0.0 0.0 0.00 0.08 0.03 97 1013.5
20260901100246 20 261 0.0 0.0 0.00 0.08 0.03 97 1013.4
20260901100241 20 261 0.0 0.0 0.00 0.08 0.03 97 1013.4
20260901100058 20 261 0.0 0.0 0.00 0.08 0.03 96 1013.4
20260901100053 20 261 0.0 0.0 0.00 0.08 0.03 97 1013.4
20260901100022 21 261 0.0 0.0 0.00 0.08 0.03 97 1013.5
20260901095937 20 261 0.0 0.0 0.00 0.08 0.03 97 1013.4
20260901095729 20 261 0.0 0.0 0.00 0.08 0.03 96 1013.4
20260901095628 20 261 0.0 0.0 0.00 0.08 0.03 96 1013.4
20260901095527 20 261 0.0 0.0 0.00 0.08 0.03 96 1013.4
20260901095521 20 261 0.0 0.0 0.00 0.08 0.03 96 1013.5
20260901095422 20 261 0.0 0.0 0.00 0.08 0.03 96 1013.4
20260901095326 20 261 0.0 0.0 0.00 0.08 0.03 96 1013.4
20260901095226 20 261 0.0 0.0 0.00 0.08 0.03 96 1013.3
20260901095125 20 261 0.0 0.0 0.00 0.08 0.03 96 1013.4
20260901095044 20 261 0.0 0.0 0.00 0.08 0.03 96 1013.5
20260901095039 20 261 0.0 0.0 0.00 0.08 0.03 96 1013.4
20260901095021 20 261 0.0 0.0 0.00 0.08 0.03 96 1013.6
20260901094926 20 261 0.0 0.0 0.00 0.08 0.03 96 1013.5
20260901094824 20 261 0.0 0.0 0.00 0.08 0.03 96 1013.4
20260901094723 20 261 0.0 0.0 0.00 0.08 0.03 96 1013.5
20260901094623 20 261 0.0 0.0 0.00 0.08 0.03 96 1013.5
20260901094542 20 261 0.0 0.0 0.00 0.08 0.03 96 1013.4
20260901094537 20 261 0.0 0.0 0.00 0.08 0.03 96 1013.5
20260901094521 21 261 0.0 0.0 0.00 0.08 0.03 96 1013.5
20260901094423 20 261 0.0 0.0 0.00 0.08 0.03 96 1013.4
20260901094321 20 261 0.0 0.0 0.00 0.08 0.03 96 1013.5
20260901094221 20 261 0.0 0.0 0.00 0.08 0.03 96 1013.5
20260901094119 20 261 0.0 0.0 0.00 0.08 0.03 96 1013.5
20260901094021 21 261 0.0 0.0 0.00 0.08 0.03 96 1013.6
20260901094019 20 261 0.0 0.0 0.00 0.08 0.03 96 1013.5
20260901093918 20 261 0.0 0.0 0.00 0.08 0.03 96 1013.5
20260901093818 20 261 0.0 0.0 0.00 0.08 0.03 96 1013.5
20260901093719 20 261 0.0 0.0 0.00 0.08 0.03 96 1013.5
20260901093617 20 261 0.0 0.0 0.00 0.08 0.03 96 1013.5
20260901093521 21 261 0.0 0.0 0.00 0.08 0.03 96 1013.5
20260901093518 20 261 0.0 0.0 0.00 0.08 0.03 96 1013.5
20260901093437 20 261 0.0 0.0 0.00 0.08 0.03 96 1013.4
20260901093426 20 261 0.0 0.0 0.00 0.08 0.03 96 1013.4
20260901093216 20 261 0.0 0.0 0.00 0.08 0.03 96 1013.5
20260901093115 20 261 0.0 0.0 0.00 0.08 0.03 96 1013.5
20260901093021 21 261 0.0 0.0 0.00 0.08 0.03 96 1013.5
20260901093015 20 261 0.0 0.0 0.00 0.08 0.03 96 1013.4
20260901092914 20 261 0.0 0.0 0.00 0.08 0.03 96 1013.4
20260901092814 20 261 0.0 0.0 0.00 0.08 0.03 96 1013.5
20260901092713 20 261 0.0 0.0 0.00 0.08 0.03 96 1013.5
20260901092613 20 261 0.0 0.0 0.00 0.08 0.03 96 1013.5
20260901092536 20 261 0.0 0.0 0.00 0.08 0.03 96 1013.6
20260901092513 20 261 0.0 0.0 0.00 0.08 0.03 96 1013.5
20260901092412 20 261 0.0 0.0 0.00 0.08 0.03 96 1013.5
20260901092312 20 261 0.0 0.0 0.00 0.08 0.03 96 1013.5
20260901092211 20 261 0.0 0.0 0.00 0.08 0.03 96 1013.5
20260901092110 20 261 0.0 0.0 0.00 0.08 0.03 96 1013.5
20260901092106 20 261 0.0 0.0 0.00 0.08 0.03 96 1013.6
20260901092009 20 261 0.0 0.0 0.00 0.08 0.03 96 1013.5
20260901091909 20 261 0.0 0.0 0.00 0.08 0.03 96 1013.5
20260901091808 20 261 0.0 0.0 0.00 0.08 0.03 96 1013.4
20260901091708 20 261 0.0 0.0 0.00 0.08 0.03 96 1013.4
20260901091608 20 261 0.0 0.0 0.00 0.08 0.03 96 1013.4
20260901091523 21 261 0.0 0.0 0.00 0.08 0.03 96 1013.5
20260901091507 20 261 0.0 0.0 0.00 0.08 0.03 96 1013.4
20260901091407 20 261 0.0 0.0 0.00 0.08 0.03 96 1013.4
20260901091307 20 261 0.0 0.0 0.00 0.08 0.03 96 1013.4
20260901091206 20 261 0.0 0.0 0.00 0.08 0.03 96 1013.3
20260901091106 20 261 0.0 0.0 0.00 0.08 0.03 96 1013.3
20260901091021 21 261 0.0 0.0 0.00 0.08 0.03 96 1013.5
20260901091005 20 261 0.0 0.0 0.00 0.08 0.03 96 1013.4
20260901090905 20 261 0.0 0.0 0.00 0.08 0.03 96 1013.4
20260901090804 20 261 0.0 0.0 0.00 0.08 0.03 96 1013.4
20260901090704 20 261 0.0 0.0 0.00 0.08 0.03 96 1013.5
20260901090604 20 261 0.0 0.0 0.00 0.08 0.03 96 1013.5
20260901090521 20 261 0.0 0.0 0.00 0.08 0.03 96 1013.6
20260901090503 20 261 0.0 0.0 0.00 0.08 0.03 96 1013.5
20260901090413 20 261 0.0 0.0 0.00 0.08 0.03 96 1013.5
20260901090402 20 261 0.0 0.0 0.00 0.08 0.03 96 1013.5
20260901090303 20 261 0.0 0.0 0.00 0.08 0.03 96 1013.6
20260901090203 20 261 0.0 0.0 0.00 0.08 0.03 96 1013.6
20260901090043 20 261 0.0 0.0 0.00 0.08 0.03 96 1013.5
20260901090029 20 261 0.0 0.0 0.00 0.08 0.03 96 1013.5
20260901090021 20 261 0.0 0.0 0.00 0.08 0.03 96 1013.6
20260901085809 20 261 0.0 0.0 0.00 0.08 0.03 96 1013.6
20260901085600 20 261 0.0 0.0 0.00 0.08 0.03 96 1013.6
20260901085536 21 261 0.0 0.0 0.00 0.08 0.03 96 1013.7
20260901085459 20 261 0.0 0.0 0.00 0.08 0.03 96 1013.6
20260901085412 20 261 0.0 0.0 0.00 0.08 0.03 96 1013.6
20260901085358 20 261 0.0 0.0 0.00 0.08 0.03 96 1013.6
20260901085258 20 261 0.0 0.0 0.00 0.08 0.03 96 1013.6
20260901085157 20 261 0.0 0.0 0.00 0.08 0.03 96 1013.6
20260901085058 20 261 0.0 0.0 0.00 0.08 0.03 96 1013.7
20260901085022 20 261 0.0 0.0 0.00 0.08 0.03 96 1013.6
20260901085004 20 261 0.0 0.0 0.00 0.08 0.03 96 1013.6
20260901084756 20 261 0.0 0.0 0.00 0.08 0.03 96 1013.7
20260901084656 21 261 0.0 0.0 0.00 0.08 0.03 96 1013.6
20260901084557 21 261 0.0 0.0 0.00 0.08 0.03 96 1013.7
20260901084521 21 261 0.0 0.0 0.00 0.08 0.03 96 1013.9
20260901084455 21 261 0.0 0.0 0.00 0.08 0.03 96 1013.8
20260901084409 21 261 0.0 0.0 0.00 0.08 0.03 96 1013.8
20260901084354 20 261 0.0 0.0 0.00 0.08 0.03 96 1013.8
20260901084254 21 261 0.0 0.0 0.00 0.08 0.03 96 1013.8
20260901084155 21 261 0.0 0.0 0.00 0.08 0.03 96 1013.8
20260901084128 21 261 0.0 0.0 0.00 0.08 0.03 96 1013.9
20260901084122 21 261 0.0 0.0 0.00 0.08 0.03 96 1013.9
20260901084117 21 261 0.0 0.0 0.00 0.08 0.03 96 1013.8
20260901084022 21 261 0.0 0.0 0.00 0.08 0.03 96 1014.0
20260901084000 21 261 0.0 0.0 0.00 0.08 0.03 96 1013.9
20260901083753 21 261 0.0 0.0 0.00 0.08 0.03 96 1013.9
20260901083651 21 261 0.0 0.0 0.00 0.08 0.03 96 1013.9
20260901083551 21 261 0.0 0.0 0.00 0.08 0.03 96 1014.0
20260901083522 21 261 0.0 0.0 0.00 0.08 0.03 96 1014.1
20260901083451 21 261 0.0 0.0 0.00 0.08 0.03 96 1014.0
20260901083408 21 261 0.0 0.0 0.00 0.08 0.03 96 1014.0
20260901083350 21 261 0.0 0.0 0.00 0.08 0.03 96 1014.0
20260901083250 21 261 0.0 0.0 0.00 0.08 0.03 96 1014.0
20260901083149 21 261 0.0 0.0 0.00 0.08 0.03 96 1014.0
20260901083103 21 261 0.0 0.0 0.00 0.08 0.03 96 1014.0
20260901083058 21 261 0.0 0.0 0.00 0.08 0.03 96 1014.0
20260901083036 21 261 0.0 0.0 0.00 0.08 0.03 96 1014.1
20260901082904 21 261 0.0 0.0 0.00 0.08 0.03 96 1014.0
20260901082848 21 261 0.0 0.0 0.00 0.08 0.03 96 1014.0
20260901082802 21 261 0.0 0.0 0.00 0.08 0.03 96 1014.0
20260901082756 21 261 0.0 0.0 0.00 0.08 0.03 96 1014.0
20260901082600 21 261 0.0 0.0 0.00 0.08 0.03 96 1013.9
20260901082555 21 261 0.0 0.0 0.00 0.08 0.03 96 1013.9
20260901082546 21 261 0.0 0.0 0.00 0.08 0.03 96 1013.9
20260901082539 21 261 0.0 0.0 0.00 0.08 0.03 96 1013.9
20260901082524 21 261 0.0 0.0 0.00 0.08 0.03 96 1013.9
20260901082521 21 261 0.0 0.0 0.00 0.08 0.03 96 1014.0
20260901082155 21 261 0.0 0.0 0.00 0.08 0.03 96 1013.9
20260901082146 21 261 0.0 0.0 0.00 0.08 0.03 96 1013.8
20260901082036 21 261 0.0 0.0 0.00 0.08 0.03 96 1014.0
20260901081922 21 261 0.0 0.0 0.00 0.08 0.03 96 1013.9
20260901081701 21 261 0.0 0.0 0.00 0.08 0.03 96 1014.0
20260901081656 21 261 0.0 0.0 0.00 0.08 0.03 96 1013.9
20260901081521 21 261 0.0 0.0 0.00 0.08 0.03 96 1014.1
20260901081406 21 261 0.0 0.0 0.00 0.08 0.03 96 1014.0
20260901081339 21 261 0.0 0.0 0.00 0.08 0.03 96 1013.9
20260901081239 21 261 0.0 0.0 0.00 0.08 0.03 96 1013.9
20260901081138 21 261 0.0 0.0 0.00 0.08 0.03 96 1013.9
20260901081037 21 261 0.0 0.0 0.00 0.08 0.03 96 1013.9
20260901081021 21 261 0.0 0.0 0.00 0.08 0.03 96 1014.0
20260901080936 21 261 0.0 0.0 0.00 0.08 0.03 96 1013.9
20260901080905 21 261 0.0 0.0 0.00 0.08 0.03 96 1013.9
20260901080848 21 261 0.0 0.0 0.00 0.08 0.03 96 1013.9
20260901080844 21 261 0.0 0.0 0.00 0.08 0.03 96 1013.9
20260901080635 21 261 0.0 0.0 0.00 0.08 0.03 96 1013.9
20260901080536 21 261 0.0 0.0 0.00 0.08 0.03 96 1014.0
20260901080534 21 261 0.0 0.0 0.00 0.08 0.03 96 1013.9
20260901080404 21 261 0.0 0.0 0.00 0.08 0.03 96 1013.9
20260901080333 21 261 0.0 0.0 0.00 0.08 0.03 96 1013.9
20260901080233 21 261 0.0 0.0 0.00 0.08 0.03 96 1013.8
20260901080145 21 261 0.0 0.0 0.00 0.08 0.03 96 1013.8
20260901080141 21 261 0.0 0.0 0.00 0.08 0.03 96 1013.8
20260901080021 21 261 0.0 0.0 0.00 0.08 0.03 96 1013.9
20260901075904 21 261 0.0 0.0 0.00 0.08 0.03 96 1013.8
20260901075830 21 261 0.0 0.0 0.00 0.08 0.03 96 1013.8
20260901075740 21 261 0.0 0.0 0.00 0.08 0.03 96 1013.7
20260901075731 21 261 0.0 0.0 0.00 0.08 0.03 96 1013.7
20260901075528 21 261 0.0 0.0 0.00 0.08 0.03 96 1013.7
20260901075521 21 261 0.0 0.0 0.00 0.08 0.03 96 1013.8
20260901075511 21 261 0.0 0.0 0.00 0.08 0.03 96 1013.7
20260901075328 21 261 0.0 0.0 0.00 0.08 0.03 96 1013.7
20260901075227 21 261 0.0 0.0 0.00 0.08 0.03 96 1013.6
20260901075126 21 261 0.0 0.0 0.00 0.08 0.03 96 1013.6
20260901075026 21 261 0.0 0.0 0.00 0.08 0.03 96 1013.8
20260901075021 21 261 0.0 0.0 0.00 0.08 0.03 96 1013.8
20260901074903 21 261 0.0 0.0 0.00 0.08 0.03 96 1013.7
20260901074825 21 261 0.0 0.0 0.00 0.08 0.03 96 1013.8
20260901074725 21 261 0.0 0.0 0.00 0.08 0.03 96 1013.7
20260901074624 21 261 0.0 0.0 0.00 0.08 0.03 96 1013.8
20260901074524 21 261 0.0 0.0 0.00 0.08 0.03 96 1013.8
20260901074521 21 261 0.0 0.0 0.00 0.08 0.03 96 1013.9
20260901074442 21 261 0.0 0.0 0.00 0.08 0.03 96 1013.8
20260901074430 21 261 0.0 0.0 0.00 0.08 0.03 96 1013.8
20260901074221 21 261 0.0 0.0 0.00 0.08 0.03 96 1013.8
20260901074121 21 261 0.0 0.0 0.00 0.08 0.03 96 1013.8
20260901074021 21 261 0.0 0.0 0.00 0.08 0.03 96 1013.9
20260901073903 21 261 0.0 0.0 0.00 0.08 0.03 96 1013.8
20260901073820 21 261 0.0 0.0 0.00 0.08 0.03 96 1013.8
20260901073731 21 261 0.0 0.0 0.00 0.08 0.03 96 1013.8
20260901073618 21 261 0.0 0.0 0.00 0.08 0.03 96 1013.8
20260901073536 21 261 0.0 0.0 0.00 0.08 0.03 96 1013.9
20260901073519 21 261 0.0 0.0 0.00 0.08 0.03 96 1013.8
20260901073510 21 261 0.0 0.0 0.00 0.08 0.03 96 1013.8
20260901073316 21 261 0.0 0.0 0.00 0.08 0.03 96 1013.8
20260901073216 21 261 0.0 0.0 0.00 0.08 0.03 96 1013.7
20260901073122 21 261 0.0 0.0 0.00 0.08 0.03 96 1013.8
20260901073114 21 261 0.0 0.0 0.00 0.08 0.03 96 1013.8
20260901073021 21 261 0.0 0.0 0.00 0.08 0.03 96 1013.9
20260901073010 21 261 0.0 0.0 0.00 0.08 0.03 96 1013.8
20260901072812 21 261 0.0 0.0 0.00 0.08 0.03 96 1013.8
20260901072712 21 261 0.0 0.0 0.00 0.08 0.03 96 1013.8
20260901072612 21 261 0.0 0.0 0.00 0.08 0.03 96 1013.8
20260901072523 21 261 0.0 0.0 0.00 0.08 0.03 96 1013.8
20260901072519 21 261 0.0 0.0 0.00 0.08 0.03 96 1013.7
20260901072403 21 261 0.0 0.0 0.00 0.08 0.03 96 1013.8
20260901072309 21 261 0.0 0.0 0.00 0.08 0.03 96 1013.8
20260901072222 21 261 0.0 0.0 0.00 0.08 0.03 96 1013.8
20260901072217 21 261 0.0 0.0 0.00 0.08 0.03 96 1013.9
20260901072021 21 261 0.0 0.0 0.00 0.08 0.03 96 1014.0
20260901072008 21 261 0.0 0.0 0.00 0.08 0.03 96 1013.9
20260901071902 21 261 0.0 0.0 0.00 0.08 0.03 96 1013.9
20260901071806 21 261 0.0 0.0 0.00 0.08 0.03 96 1013.9
20260901071706 21 261 0.0 0.0 0.00 0.08 0.03 96 1013.9
20260901071606 21 261 0.0 0.0 0.00 0.08 0.03 96 1013.9
20260901071521 21 261 0.0 0.0 0.00 0.08 0.03 96 1014.0
20260901071505 21 261 0.0 0.0 0.00 0.08 0.03 96 1013.9
20260901071408 21 261 0.0 0.0 0.00 0.08 0.03 96 1013.9
20260901071401 21 261 0.0 0.0 0.00 0.08 0.03 96 1013.9
20260901071303 21 261 0.0 0.0 0.00 0.08 0.03 96 1013.8
20260901071203 21 261 0.0 0.0 0.00 0.08 0.03 96 1013.9
20260901071103 21 261 0.0 0.0 0.00 0.08 0.03 96 1013.9
20260901071042 21 261 0.0 0.0 0.00 0.08 0.03 96 1013.9
20260901071037 21 261 0.0 0.0 0.00 0.08 0.03 96 1013.9
20260901070918 21 261 0.0 0.0 0.00 0.08 0.03 96 1013.9
20260901070625 21 261 0.0 0.0 0.00 0.08 0.03 96 1013.9
20260901070600 21 261 0.0 0.0 0.00 0.08 0.03 96 1013.9
20260901070522 21 261 0.0 0.0 0.00 0.08 0.03 96 1014.0
20260901070514 21 261 0.0 0.0 0.00 0.08 0.03 96 1013.9
20260901070400 21 261 0.0 0.0 0.00 0.08 0.03 96 1013.9
20260901070259 21 261 0.0 0.0 0.00 0.08 0.03 96 1013.9
20260901070159 21 261 0.0 0.0 0.00 0.08 0.03 96 1014.0
20260901070059 21 261 0.0 0.0 0.00 0.08 0.03 96 1014.0
20260901070021 21 261 0.0 0.0 0.00 0.08 0.03 96 1014.1
20260901065957 21 261 0.0 0.0 0.00 0.08 0.03 96 1014.0
20260901065918 21 261 0.0 0.0 0.00 0.08 0.03 96 1013.9
20260901065805 21 261 0.0 0.0 0.00 0.08 0.03 96 1014.0
20260901065609 21 261 0.0 0.0 0.00 0.08 0.03 96 1014.1
20260901065605 21 261 0.0 0.0 0.00 0.08 0.03 96 1014.0
20260901065521 21 261 0.0 0.0 0.00 0.08 0.03 96 1014.3
20260901065355 21 261 0.0 0.0 0.00 0.08 0.03 96 1014.1
20260901065255 21 261 0.0 0.0 0.00 0.08 0.03 96 1014.1
20260901065154 21 261 0.0 0.0 0.00 0.08 0.03 96 1014.1
20260901065054 21 261 0.0 0.0 0.00 0.08 0.03 96 1014.1
20260901065036 21 261 0.0 0.0 0.00 0.08 0.03 96 1014.4
20260901064952 21 261 0.0 0.0 0.00 0.08 0.03 96 1014.2
20260901064911 21 261 0.0 0.0 0.00 0.08 0.03 96 1014.1
20260901064902 21 261 0.0 0.0 0.00 0.08 0.03 96 1014.1
20260901064653 21 261 0.0 0.0 0.00 0.08 0.03 96 1014.1
20260901064606 21 261 0.0 0.0 0.00 0.08 0.03 96 1014.1
20260901064601 21 261 0.0 0.0 0.00 0.08 0.03 96 1014.2
20260901064521 21 261 0.0 0.0 0.00 0.08 0.03 96 1014.3
20260901064359 21 261 0.0 0.0 0.00 0.08 0.03 96 1014.1
20260901064352 21 261 0.0 0.0 0.00 0.08 0.03 96 1014.1
20260901064323 21 261 0.0 0.0 0.00 0.08 0.03 96 1014.1
20260901064319 21 261 0.0 0.0 0.00 0.08 0.03 96 1014.2
20260901064315 21 261 0.0 0.0 0.00 0.08 0.03 96 1014.1
20260901064310 21 261 0.0 0.0 0.00 0.08 0.03 96 1014.2
20260901064026 21 261 0.0 0.0 0.00 0.08 0.03 96 1014.1
20260901064021 21 261 0.0 0.0 0.00 0.08 0.03 96 1014.3
20260901063911 21 261 0.0 0.0 0.00 0.08 0.03 96 1014.1
20260901063758 21 261 0.0 0.0 0.00 0.08 0.03 96 1014.1
20260901063548 21 261 0.0 0.0 0.00 0.08 0.03 96 1014.2
20260901063521 21 261 0.0 0.0 0.00 0.08 0.03 96 1014.4
20260901063447 21 261 0.0 0.0 0.00 0.08 0.03 96 1014.2
20260901063347 21 261 0.0 0.0 0.00 0.08 0.03 96 1014.2
20260901063246 21 261 0.0 0.0 0.00 0.08 0.03 96 1014.2
20260901063228 21 261 0.0 0.0 0.00 0.08 0.03 96 1014.2
20260901063046 21 261 0.0 0.0 0.00 0.08 0.03 96 1014.2
20260901063022 21 261 0.0 0.0 0.00 0.08 0.03 96 1014.4
20260901063004 21 261 0.0 0.0 0.00 0.08 0.03 96 1014.2
20260901062847 21 261 0.0 0.0 0.00 0.08 0.03 96 1014.2
20260901062745 21 261 0.0 0.0 0.00 0.08 0.03 96 1014.2
20260901062645 21 261 0.0 0.0 0.00 0.08 0.03 96 1014.3
20260901062613 21 261 0.0 0.0 0.00 0.08 0.03 96 1014.3
20260901062545 21 261 0.0 0.0 0.00 0.08 0.03 96 1014.3
20260901062521 21 261 0.0 0.0 0.00 0.08 0.03 96 1014.5
20260901062444 21 261 0.0 0.0 0.00 0.08 0.03 96 1014.3
20260901062344 21 261 0.0 0.0 0.00 0.08 0.03 96 1014.3
20260901062244 21 261 0.0 0.0 0.00 0.08 0.03 96 1014.3
20260901062143 21 261 0.0 0.0 0.00 0.08 0.03 96 1014.3
20260901062043 21 261 0.0 0.0 0.00 0.08 0.03 96 1014.4
20260901062021 21 261 0.0 0.0 0.00 0.08 0.03 96 1014.6
20260901061943 21 261 0.0 0.0 0.00 0.08 0.03 96 1014.4
20260901061842 21 261 0.0 0.0 0.00 0.08 0.03 96 1014.4
20260901061742 21 261 0.0 0.0 0.00 0.08 0.03 96 1014.4
20260901061641 21 261 0.0 0.0 0.00 0.08 0.03 96 1014.4
20260901061541 21 261 0.0 0.0 0.00 0.08 0.03 96 1014.4
20260901061521 21 261 0.0 0.0 0.00 0.08 0.03 96 1014.6
20260901061440 21 261 0.0 0.0 0.00 0.08 0.03 96 1014.4
20260901061339 21 261 0.0 0.0 0.00 0.08 0.03 96 1014.4
20260901061239 21 261 0.0 0.0 0.00 0.08 0.03 96 1014.5
20260901061138 21 261 0.0 0.0 0.00 0.08 0.03 96 1014.5
20260901061037 21 261 0.0 0.0 0.00 0.08 0.03 96 1014.5
20260901061022 21 261 0.0 0.0 0.00 0.08 0.03 96 1014.7
20260901060952 21 261 0.0 0.0 0.00 0.08 0.03 96 1014.5
20260901060944 21 261 0.0 0.0 0.00 0.08 0.03 96 1014.5
20260901060751 21 261 0.0 0.0 0.00 0.08 0.03 96 1014.5
20260901060745 21 261 0.0 0.0 0.00 0.08 0.03 96 1014.5
20260901060609 21 261 0.0 0.0 0.00 0.08 0.03 96 1014.5
20260901060535 21 261 0.0 0.0 0.00 0.08 0.03 96 1014.5
20260901060521 21 261 0.0 0.0 0.00 0.08 0.03 96 1014.6
20260901060456 21 261 0.0 0.0 0.00 0.08 0.03 96 1014.4
20260901060335 21 261 0.0 0.0 0.00 0.08 0.03 96 1014.5
20260901060248 21 261 0.0 0.0 0.00 0.08 0.03 96 1014.5
20260901060243 21 261 0.0 0.0 0.00 0.08 0.03 96 1014.4
20260901060033 21 261 0.0 0.0 0.00 0.08 0.03 96 1014.4
20260901060021 21 261 0.0 0.0 0.00 0.08 0.03 96 1014.7
20260901055931 21 261 0.0 0.0 0.00 0.08 0.03 96 1014.5
20260901055831 21 261 0.0 0.0 0.00 0.08 0.03 96 1014.5
20260901055730 21 261 0.0 0.0 0.00 0.08 0.03 96 1014.5
20260901055722 21 261 0.0 0.0 0.00 0.08 0.03 96 1014.5
20260901055716 21 261 0.0 0.0 0.00 0.08 0.03 96 1014.5
20260901055603 21 261 0.0 0.0 0.00 0.08 0.03 96 1014.5
20260901055521 21 261 0.0 0.0 0.00 0.08 0.03 96 1014.7
20260901055329 21 261 0.0 0.0 0.00 0.08 0.03 96 1014.5
20260901055227 21 261 0.0 0.0 0.00 0.08 0.03 96 1014.5
20260901055127 21 261 0.0 0.0 0.00 0.08 0.03 96 1014.5
20260901055028 21 261 0.0 0.0 0.00 0.08 0.03 96 1014.5
20260901055021 21 261 0.0 0.0 0.00 0.08 0.03 96 1014.7
20260901054927 21 261 0.0 0.0 0.00 0.08 0.03 96 1014.5
20260901054826 21 261 0.0 0.0 0.00 0.08 0.03 96 1014.6
20260901054726 21 261 0.0 0.0 0.00 0.08 0.03 96 1014.6
20260901054625 21 261 0.0 0.0 0.00 0.08 0.03 96 1014.6
20260901054602 21 261 0.0 0.0 0.00 0.08 0.03 96 1014.6
20260901054525 21 261 0.0 0.0 0.00 0.08 0.03 96 1014.6
20260901054521 21 261 0.0 0.0 0.00 0.08 0.03 96 1014.8
20260901054452 21 261 0.0 0.0 0.00 0.08 0.03 96 1014.6
20260901054324 21 261 0.0 0.0 0.00 0.08 0.03 96 1014.6
20260901054222 21 261 0.0 0.0 0.00 0.08 0.03 96 1014.6
20260901054122 21 261 0.0 0.0 0.00 0.08 0.03 96 1014.6
20260901054037 21 261 0.0 0.0 0.00 0.08 0.03 96 1014.6
20260901054031 21 261 0.0 0.0 0.00 0.08 0.03 96 1014.6
20260901054023 21 261 0.0 0.0 0.00 0.08 0.03 96 1014.8
20260901053836 21 261 0.0 0.0 0.00 0.08 0.03 96 1014.6
20260901053830 21 261 0.0 0.0 0.00 0.08 0.03 96 1014.7
20260901053621 21 261 0.0 0.0 0.00 0.08 0.03 96 1014.6
20260901053521 21 261 0.0 0.0 0.00 0.08 0.03 96 1014.8
20260901053420 21 261 0.0 0.0 0.00 0.08 0.03 96 1014.6
20260901053320 21 261 0.0 0.0 0.00 0.08 0.03 96 1014.5
20260901053219 21 261 0.0 0.0 0.00 0.08 0.03 96 1014.5
20260901053119 21 261 0.0 0.0 0.00 0.08 0.03 96 1014.6
20260901053021 21 261 0.0 0.0 0.03 0.08 0.03 96 1014.7
20260901053018 21 261 0.0 0.0 0.03 0.08 0.03 96 1014.5
20260901052918 21 261 0.0 0.0 0.03 0.08 0.03 96 1014.5
20260901052818 21 261 0.0 0.0 0.03 0.08 0.03 96 1014.5
20260901052717 21 261 0.0 0.0 0.03 0.08 0.03 96 1014.6
20260901052617 21 261 0.0 0.0 0.03 0.08 0.03 96 1014.5
20260901052554 21 261 0.0 0.0 0.03 0.08 0.03 96 1014.5
20260901052537 21 261 0.0 0.0 0.03 0.08 0.03 96 1014.7
20260901052516 21 261 0.0 0.0 0.03 0.08 0.03 96 1014.5
20260901052443 21 261 0.0 0.0 0.03 0.08 0.03 96 1014.5
20260901052329 21 261 0.0 0.0 0.03 0.08 0.03 96 1014.5
20260901052324 21 261 0.0 0.0 0.03 0.08 0.03 96 1014.5
20260901052114 21 261 0.0 0.0 0.03 0.08 0.03 96 1014.5
20260901052021 21 261 0.0 0.0 0.03 0.08 0.03 96 1014.6
20260901052014 21 261 0.0 0.0 0.03 0.08 0.03 96 1014.5
20260901051912 21 261 0.0 0.0 0.03 0.08 0.03 96 1014.4
20260901051813 21 261 0.0 0.0 0.03 0.08 0.03 96 1014.4
20260901051727 21 261 0.0 0.0 0.03 0.08 0.03 96 1014.4
20260901051721 21 261 0.0 0.0 0.03 0.08 0.03 96 1014.4
20260901051603 21 261 0.0 0.0 0.03 0.08 0.03 96 1014.3
20260901051557 21 261 0.0 0.0 0.03 0.08 0.03 96 1014.4
20260901051550 21 261 0.0 0.0 0.03 0.08 0.03 96 1014.4
20260901051521 21 261 0.0 0.0 0.03 0.08 0.03 96 1014.6
20260901051311 21 262 0.0 0.0 0.03 0.08 0.03 96 1014.3
20260901051210 21 262 0.0 0.0 0.03 0.08 0.03 96 1014.4
20260901051109 21 262 0.0 0.0 0.03 0.08 0.03 96 1014.4
20260901051021 21 262 0.0 0.0 0.03 0.08 0.03 96 1014.6
20260901051009 21 262 0.0 0.0 0.03 0.08 0.03 96 1014.4
20260901050908 21 262 0.0 0.0 0.03 0.08 0.03 96 1014.4
20260901050808 21 262 0.0 0.0 0.03 0.08 0.03 96 1014.4
20260901050707 21 262 0.0 0.0 0.03 0.08 0.03 96 1014.4
20260901050608 21 262 0.0 0.0 0.03 0.08 0.03 96 1014.5
20260901050522 21 262 0.0 0.0 0.03 0.08 0.03 96 1014.8
20260901050506 21 262 0.0 0.0 0.03 0.08 0.03 96 1014.5
20260901050405 21 262 0.0 0.0 0.03 0.08 0.03 96 1014.6
20260901050305 21 262 0.0 0.0 0.03 0.08 0.03 96 1014.6
20260901050204 21 262 0.0 0.0 0.03 0.08 0.03 96 1014.7
20260901050104 21 262 0.0 0.0 0.03 0.08 0.03 96 1014.7
20260901050022 21 262 0.0 0.0 0.03 0.08 0.03 96 1015.0
20260901050004 21 262 0.0 0.0 0.03 0.08 0.03 96 1014.8
20260901045919 21 262 0.0 0.0 0.03 0.08 0.03 96 1014.8
20260901045911 21 262 0.0 0.0 0.03 0.08 0.03 96 1014.8
20260901045712 21 262 0.0 0.0 0.03 0.08 0.03 96 1014.8
20260901045703 21 262 0.0 0.0 0.03 0.08 0.03 96 1014.8
20260901045521 21 262 0.0 0.0 0.03 0.08 0.03 96 1015.0
20260901045502 21 262 0.0 0.0 0.03 0.08 0.03 96 1014.8
20260901045440 21 261 0.0 0.0 0.03 0.08 0.03 96 1014.7
20260901045306 21 261 0.0 0.0 0.03 0.08 0.03 96 1014.7
20260901045226 21 261 0.0 0.0 0.03 0.08 0.03 96 1014.7
20260901045222 21 261 0.0 0.0 0.03 0.08 0.03 96 1014.7
20260901045217 21 261 0.0 0.0 0.03 0.08 0.03 96 1014.7
20260901045021 21 261 0.0 0.0 0.03 0.08 0.03 96 1014.9
20260901044831 21 261 0.0 0.0 0.03 0.08 0.03 96 1014.6
20260901044758 21 269 0.0 0.0 0.03 0.08 0.03 96 1014.7
20260901044657 21 269 0.0 0.0 0.03 0.08 0.03 96 1014.7
20260901044556 21 269 0.0 0.0 0.03 0.08 0.03 96 1014.7
20260901044521 21 182 0.0 0.0 0.03 0.08 0.03 96 1014.9
20260901044456 21 182 0.0 0.0 0.03 0.08 0.03 96 1014.7
20260901044333 21 182 0.0 0.0 0.03 0.08 0.03 96 1014.7
20260901044255 21 182 0.0 0.0 0.03 0.08 0.03 96 1014.7
20260901044154 21 182 0.0 0.0 0.03 0.08 0.03 96 1014.6
20260901044053 21 182 0.0 0.0 0.03 0.08 0.03 96 1014.6
20260901044021 21 182 0.0 0.0 0.03 0.08 0.03 96 1014.8
20260901043953 21 182 0.0 0.0 0.03 0.08 0.03 96 1014.6
20260901043853 21 182 0.0 0.0 0.03 0.08 0.03 96 1014.6
20260901043830 21 173 0.0 0.0 0.03 0.08 0.03 96 1014.6
20260901043752 21 171 0.0 0.0 0.03 0.08 0.03 96 1014.6
20260901043652 21 173 0.0 0.0 0.03 0.08 0.03 96 1014.6
20260901043550 21 173 0.0 0.0 0.03 0.08 0.03 96 1014.6
20260901043521 21 173 0.0 0.0 0.03 0.08 0.03 96 1014.8
20260901043504 20 139 0.0 0.0 0.03 0.08 0.03 96 1014.6
20260901043459 20 198 0.0 0.0 0.03 0.08 0.03 96 1014.6
20260901043329 20 146 0.0 0.0 0.03 0.08 0.03 96 1014.6
20260901043249 20 167 0.0 0.0 0.03 0.08 0.03 96 1014.6
20260901043149 20 169 0.0 0.0 0.03 0.08 0.03 96 1014.7
20260901043102 20 150 0.0 0.0 0.00 0.05 0.00 96 1014.7
20260901043057 20 165 0.0 0.0 0.03 0.08 0.03 96 1014.7
20260901043021 20 147 0.0 0.0 0.00 0.05 0.00 96 1014.9
20260901042848 20 167 0.0 0.0 0.00 0.05 0.00 95 1014.8
20260901042827 20 151 0.0 0.0 0.00 0.05 0.00 95 1014.8
20260901042801 20 183 0.0 0.0 0.00 0.05 0.00 95 1014.9
20260901042756 20 161 0.0 0.0 0.00 0.05 0.00 95 1014.9
20260901042546 20 224 0.0 0.0 0.00 0.05 0.00 95 1015.0
20260901042522 20 224 0.0 0.0 0.00 0.05 0.00 95 1015.3
20260901042446 20 226 0.0 0.0 0.00 0.05 0.00 95 1015.1
20260901042327 20 228 0.0 0.0 0.00 0.05 0.00 95 1015.1
20260901042245 20 228 0.0 0.0 0.00 0.05 0.00 95 1015.1
20260901042144 20 228 0.0 0.0 0.00 0.05 0.00 96 1015.2
20260901042044 20 228 0.0 0.0 0.00 0.05 0.00 96 1015.3
20260901042022 20 228 0.0 0.0 0.00 0.05 0.00 96 1015.5
20260901041944 20 228 0.0 0.0 0.00 0.05 0.00 96 1015.3
20260901041902 20 228 0.0 0.0 0.00 0.05 0.00 96 1015.4
20260901041850 20 228 0.0 0.0 0.00 0.05 0.00 96 1015.3
20260901041642 20 228 0.0 0.0 0.00 0.05 0.00 95 1015.4
20260901041542 20 228 0.0 0.0 0.00 0.05 0.00 95 1015.4
20260901041521 20 228 0.0 0.0 0.00 0.05 0.00 96 1015.6
20260901041455 20 228 0.0 0.0 0.00 0.05 0.00 96 1015.4
20260901041450 20 228 0.0 0.0 0.00 0.05 0.00 96 1015.4
20260901041323 20 228 0.0 0.0 0.00 0.05 0.00 96 1015.4
20260901041240 20 228 0.0 0.0 0.00 0.05 0.00 96 1015.4
20260901041140 20 228 0.0 0.0 0.00 0.05 0.00 96 1015.4
20260901041040 20 228 0.0 0.0 0.00 0.05 0.00 96 1015.4
20260901041021 20 228 0.0 0.0 0.00 0.05 0.00 96 1015.6
20260901040939 20 228 0.0 0.0 0.00 0.05 0.00 96 1015.4
20260901040821 20 228 0.0 0.0 0.00 0.05 0.00 96 1015.4
20260901040739 20 228 0.0 0.0 0.00 0.05 0.00 96 1015.5
20260901040639 20 228 0.0 0.0 0.00 0.05 0.00 96 1015.4
20260901040538 20 228 0.0 0.0 0.00 0.05 0.00 96 1015.4
20260901040522 20 228 0.0 0.0 0.00 0.05 0.00 96 1015.6
20260901040437 20 228 0.0 0.0 0.00 0.05 0.00 96 1015.4
20260901040321 20 228 0.0 0.0 0.00 0.05 0.00 96 1015.5
20260901040236 20 228 0.0 0.0 0.00 0.05 0.00 96 1015.4
20260901040136 20 228 0.0 0.0 0.00 0.05 0.00 96 1015.5
20260901040035 20 228 0.0 0.0 0.00 0.05 0.00 96 1015.4
20260901040021 20 228 0.0 0.0 0.00 0.05 0.00 96 1015.6
20260901035935 20 228 0.0 0.0 0.00 0.05 0.05 96 1015.4
20260901035820 20 228 0.0 0.0 0.00 0.05 0.05 96 1015.4
20260901035733 20 228 0.0 0.0 0.00 0.05 0.05 96 1015.4
20260901035633 20 228 0.0 0.0 0.00 0.05 0.05 95 1015.4
20260901035617 20 228 0.0 0.0 0.00 0.05 0.05 96 1015.4
20260901035613 20 228 0.0 0.0 0.00 0.05 0.05 95 1015.4
20260901035609 20 228 0.0 0.0 0.00 0.05 0.05 95 1015.4
20260901035604 20 228 0.0 0.0 0.00 0.05 0.05 96 1015.3
20260901035521 20 228 0.0 0.0 0.00 0.05 0.05 96 1015.5
20260901035337 20 228 0.0 0.0 0.00 0.05 0.05 95 1015.4
20260901035131 20 228 0.0 0.0 0.00 0.05 0.05 95 1015.4
20260901035042 20 228 0.0 0.0 0.00 0.05 0.05 95 1015.4
20260901035038 20 228 0.0 0.0 0.00 0.05 0.05 95 1015.4
20260901035022 20 228 0.0 0.0 0.00 0.05 0.05 95 1015.5
20260901034818 20 228 0.0 0.0 0.00 0.05 0.05 95 1015.3
20260901034728 20 228 0.0 0.0 0.00 0.05 0.05 95 1015.3
20260901034627 20 228 0.0 0.0 0.00 0.05 0.05 95 1015.3
20260901034527 20 228 0.0 0.0 0.00 0.05 0.05 95 1015.3
20260901034521 20 228 0.0 0.0 0.00 0.05 0.05 95 1015.4
20260901034428 20 228 0.0 0.0 0.00 0.05 0.05 95 1015.3
20260901034317 20 228 0.0 0.0 0.00 0.05 0.05 95 1015.4
20260901034226 20 228 0.0 0.0 0.00 0.05 0.05 95 1015.3
20260901034126 20 228 0.0 0.0 0.00 0.05 0.05 95 1015.4
20260901034041 20 228 0.0 0.0 0.00 0.05 0.05 95 1015.3
20260901034026 20 228 0.0 0.0 0.00 0.05 0.05 95 1015.3
20260901034022 20 228 0.0 0.0 0.00 0.05 0.05 95 1015.5
20260901033935 20 228 0.0 0.0 0.00 0.05 0.05 95 1015.4
20260901033926 20 228 0.0 0.0 0.00 0.05 0.05 95 1015.3
20260901033724 20 228 0.0 0.0 0.00 0.05 0.05 95 1015.4
20260901033622 20 228 0.0 0.0 0.00 0.05 0.05 95 1015.4
20260901033522 20 228 0.0 0.0 0.00 0.05 0.05 95 1015.5
20260901033439 20 228 0.0 0.0 0.00 0.05 0.05 95 1015.4
20260901033435 20 228 0.0 0.0 0.00 0.05 0.05 95 1015.4
20260901033320 20 228 0.0 0.0 0.00 0.05 0.05 95 1015.4
20260901033220 20 228 0.0 0.0 0.00 0.05 0.05 95 1015.3
20260901033120 20 228 0.0 0.0 0.00 0.05 0.05 95 1015.3
20260901033100 20 228 0.0 0.0 0.00 0.05 0.05 95 1015.4
20260901033054 20 228 0.0 0.0 0.00 0.05 0.05 95 1015.4
20260901033036 20 228 0.0 0.0 0.00 0.05 0.05 95 1015.5
20260901032941 20 228 0.0 0.0 0.00 0.05 0.05 95 1015.4
20260901032827 20 228 0.0 0.0 0.00 0.05 0.05 95 1015.4
20260901032615 20 228 0.0 0.0 0.00 0.05 0.05 95 1015.4
20260901032521 20 228 0.0 0.0 0.00 0.05 0.05 95 1015.5
20260901032514 20 228 0.0 0.0 0.00 0.05 0.05 95 1015.5
20260901032413 20 228 0.0 0.0 0.00 0.05 0.05 95 1015.4
20260901032314 20 228 0.0 0.0 0.00 0.05 0.05 95 1015.5
20260901032212 20 228 0.0 0.0 0.00 0.05 0.05 95 1015.5
20260901032112 20 228 0.0 0.0 0.00 0.05 0.05 95 1015.5
20260901032021 20 228 0.0 0.0 0.00 0.05 0.05 95 1015.6
20260901032012 20 228 0.0 0.0 0.00 0.05 0.05 95 1015.5
20260901031911 20 228 0.0 0.0 0.00 0.05 0.05 95 1015.5
20260901031811 20 228 0.0 0.0 0.00 0.05 0.05 95 1015.5
20260901031711 20 228 0.0 0.0 0.00 0.05 0.05 95 1015.5
20260901031624 20 228 0.0 0.0 0.00 0.05 0.05 95 1015.5
20260901031620 20 228 0.0 0.0 0.00 0.05 0.05 95 1015.6
20260901031521 20 228 0.0 0.0 0.00 0.05 0.05 95 1015.7
20260901031410 20 228 0.0 0.0 0.00 0.05 0.05 95 1015.6
20260901031309 20 228 0.0 0.0 0.00 0.05 0.05 95 1015.6
20260901031209 20 228 0.0 0.0 0.00 0.05 0.05 95 1015.7
20260901031108 20 228 0.0 0.0 0.00 0.05 0.05 95 1015.7
20260901031022 20 228 0.0 0.0 0.00 0.05 0.05 95 1015.7
20260901031008 20 228 0.0 0.0 0.00 0.05 0.05 95 1015.7
20260901030908 20 228 0.0 0.0 0.00 0.05 0.05 95 1015.6
20260901030813 20 228 0.0 0.0 0.00 0.05 0.05 95 1015.7
20260901030807 20 228 0.0 0.0 0.00 0.05 0.05 95 1015.6
20260901030706 20 228 0.0 0.0 0.00 0.05 0.05 95 1015.6
20260901030605 20 228 0.0 0.0 0.00 0.05 0.05 95 1015.5
20260901030522 20 228 0.0 0.0 0.00 0.05 0.05 95 1015.6
20260901030505 20 228 0.0 0.0 0.00 0.05 0.05 95 1015.5
20260901030404 20 228 0.0 0.0 0.00 0.05 0.05 95 1015.5
20260901030304 20 228 0.0 0.0 0.00 0.05 0.05 95 1015.5
20260901030203 20 228 0.0 0.0 0.00 0.05 0.05 95 1015.5
20260901030028 20 228 0.0 0.0 0.00 0.05 0.05 95 1015.5
20260901030022 20 228 0.0 0.0 0.00 0.05 0.05 95 1015.6
20260901025906 20 228 0.0 0.0 0.00 0.05 0.05 95 1015.6
20260901025700 20 228 0.0 0.0 0.00 0.05 0.05 95 1015.6
20260901025600 20 228 0.0 0.0 0.00 0.05 0.05 95 1015.5
20260901025533 20 228 0.0 0.0 0.00 0.05 0.05 95 1015.5
20260901025528 20 228 0.0 0.0 0.00 0.05 0.05 95 1015.5
20260901025523 20 228 0.0 0.0 0.00 0.05 0.05 95 1015.5
20260901025521 20 228 0.0 0.0 0.00 0.05 0.05 95 1015.6
20260901025405 20 228 0.0 0.0 0.00 0.05 0.05 95 1015.5
20260901025157 20 228 0.0 0.0 0.00 0.05 0.05 95 1015.5
20260901025057 20 228 0.0 0.0 0.00 0.05 0.05 95 1015.5
20260901025021 20 228 0.0 0.0 0.00 0.05 0.05 95 1015.6
20260901024957 20 228 0.0 0.0 0.00 0.05 0.05 95 1015.5
20260901024929 20 228 0.0 0.0 0.00 0.05 0.05 95 1015.4
20260901024925 20 228 0.0 0.0 0.00 0.05 0.05 95 1015.5
20260901024911 20 228 0.0 0.0 0.00 0.05 0.05 95 1015.4
20260901024555 20 228 0.0 0.0 0.00 0.05 0.05 95 1015.5
20260901024522 20 228 0.0 0.0 0.00 0.05 0.05 95 1015.6
20260901024455 20 228 0.0 0.0 0.00 0.05 0.05 95 1015.5
20260901024354 20 228 0.0 0.0 0.00 0.05 0.05 95 1015.5
20260901024309 20 228 0.0 0.0 0.00 0.05 0.05 95 1015.5
20260901024254 20 228 0.0 0.0 0.00 0.05 0.05 95 1015.5
20260901024153 20 228 0.0 0.0 0.00 0.05 0.05 95 1015.5
20260901024052 20 228 0.0 0.0 0.00 0.05 0.05 95 1015.4
20260901024022 20 228 0.0 0.0 0.00 0.05 0.05 95 1015.6
20260901023952 20 228 0.0 0.0 0.00 0.05 0.05 95 1015.5
20260901023851 20 228 0.0 0.0 0.00 0.05 0.05 94 1015.5
20260901023809 20 228 0.0 0.0 0.00 0.05 0.05 94 1015.5
20260901023751 20 228 0.0 0.0 0.00 0.05 0.05 94 1015.5
20260901023713 20 228 0.0 0.0 0.00 0.05 0.05 94 1015.5
20260901023559 20 228 0.0 0.0 0.00 0.05 0.05 95 1015.6
20260901023537 20 228 0.0 0.0 0.00 0.05 0.05 95 1015.7
20260901023350 20 228 0.0 0.0 0.00 0.05 0.05 95 1015.5
20260901023308 20 228 0.0 0.0 0.00 0.05 0.05 95 1015.5
20260901023302 20 228 0.0 0.0 0.00 0.05 0.05 95 1015.6
20260901023258 20 228 0.0 0.0 0.00 0.05 0.05 95 1015.5
20260901023049 20 228 0.0 0.0 0.00 0.05 0.05 95 1015.6
20260901023022 20 228 0.0 0.0 0.00 0.05 0.05 95 1015.7
20260901022947 20 228 0.0 0.0 0.00 0.05 0.05 95 1015.6
20260901022847 20 228 0.0 0.0 0.00 0.05 0.05 95 1015.6
20260901022809 20 228 0.0 0.0 0.00 0.05 0.05 95 1015.6
20260901022746 20 228 0.0 0.0 0.00 0.05 0.05 95 1015.6
20260901022659 20 228 0.0 0.0 0.00 0.05 0.05 95 1015.6
20260901022655 20 228 0.0 0.0 0.00 0.05 0.05 95 1015.6
20260901022522 20 228 0.0 0.0 0.00 0.05 0.05 95 1015.7
20260901022445 20 228 0.0 0.0 0.00 0.05 0.05 95 1015.6
20260901022345 20 228 0.0 0.0 0.00 0.05 0.05 95 1015.6
20260901022306 20 228 0.0 0.0 0.00 0.05 0.05 95 1015.6
20260901022245 20 228 0.0 0.0 0.00 0.05 0.05 95 1015.6
20260901022144 20 228 0.0 0.0 0.00 0.05 0.05 94 1015.7
20260901022044 20 228 0.0 0.0 0.00 0.08 0.05 94 1015.7
20260901022022 20 228 0.0 0.0 0.00 0.08 0.05 94 1015.8
20260901021943 20 228 0.0 0.0 0.00 0.08 0.05 94 1015.7
20260901021843 20 228 0.0 0.0 0.00 0.08 0.05 94 1015.6
20260901021806 20 228 0.0 0.0 0.00 0.08 0.05 94 1015.6
20260901021743 20 228 0.0 0.0 0.00 0.13 0.05 94 1015.7
20260901021642 20 228 0.0 0.0 0.00 0.13 0.05 94 1015.7
20260901021542 20 228 0.0 0.0 0.00 0.15 0.05 94 1015.6
20260901021522 20 228 0.0 0.0 0.00 0.23 0.05 94 1015.7
20260901021441 20 228 0.0 0.0 0.00 0.25 0.05 94 1015.6
20260901021341 20 228 0.0 0.0 0.00 0.36 0.05 94 1015.6
20260901021306 20 228 0.0 0.0 0.00 0.38 0.05 94 1015.6
20260901021241 20 228 0.0 0.0 0.00 0.38 0.05 94 1015.6
20260901021139 20 228 0.0 0.0 0.00 0.41 0.05 94 1015.6
20260901021039 20 228 0.0 0.0 0.00 0.51 0.05 94 1015.6
20260901021022 20 228 0.0 0.0 0.00 0.53 0.05 94 1015.7
20260901020938 20 228 0.0 0.0 0.00 0.64 0.05 94 1015.6
20260901020837 20 228 0.0 0.0 0.00 0.81 0.05 94 1015.6
20260901020806 20 228 0.0 0.0 0.00 0.81 0.05 94 1015.6
20260901020737 20 228 0.0 0.0 0.00 0.86 0.05 94 1015.7
20260901020637 20 228 0.0 0.0 0.00 0.91 0.05 94 1015.6
20260901020536 20 228 0.0 0.0 0.00 0.99 0.05 94 1015.6
20260901020521 20 228 0.0 0.0 0.00 0.97 0.05 94 1015.8
20260901020435 20 228 0.0 0.0 0.00 1.04 0.05 94 1015.7
20260901020306 20 228 0.0 0.0 0.00 1.12 0.05 94 1015.6
20260901020234 20 228 0.0 0.0 0.00 1.17 0.05 94 1015.6
20260901020134 20 228 0.0 0.0 0.00 1.22 0.05 94 1015.6
20260901020033 20 228 0.0 0.0 0.00 1.27 0.05 94 1015.6
20260901020022 20 228 0.0 0.0 0.00 1.24 0.05 94 1015.8
20260901015932 20 228 0.0 0.0 0.00 1.32 0.05 94 1015.7
20260901015832 20 228 0.0 0.0 0.00 1.32 0.05 94 1015.6
20260901015806 20 228 0.0 0.0 0.00 1.37 0.05 94 1015.7
20260901015731 20 228 0.0 0.0 0.00 1.37 0.05 94 1015.7
20260901015630 20 228 0.0 0.0 0.00 1.37 0.05 94 1015.6
20260901015536 20 228 0.0 0.0 0.00 1.47 0.05 93 1015.6
20260901015530 20 228 0.0 0.0 0.00 1.40 0.05 94 1015.6
20260901015522 20 228 0.0 0.0 0.00 1.37 0.05 94 1015.7
20260901015429 20 228 0.0 0.0 0.00 1.42 0.05 94 1015.6
20260901015414 20 228 0.0 0.0 0.00 1.42 0.05 93 1015.6
20260901015229 20 228 0.0 0.0 0.00 1.47 0.05 93 1015.5
20260901015128 20 228 0.0 0.0 0.00 1.50 0.05 93 1015.5
20260901015028 20 228 0.0 0.0 0.00 1.55 0.05 93 1015.5
20260901015021 20 228 0.0 0.0 0.00 1.55 0.05 93 1015.6
20260901014928 20 228 0.0 0.0 0.00 1.63 0.05 93 1015.5
20260901014827 20 228 0.0 0.0 0.00 1.65 0.05 93 1015.5
20260901014806 20 228 0.0 0.0 0.00 1.65 0.05 93 1015.4
20260901014727 20 228 0.0 0.0 0.00 1.65 0.05 93 1015.4
20260901014640 20 228 0.0 0.0 0.00 1.68 0.05 93 1015.5
20260901014526 20 228 0.0 0.0 0.00 1.68 0.05 93 1015.4
20260901014522 20 228 0.0 0.0 0.00 1.68 0.05 93 1015.5
20260901014425 20 228 0.0 0.0 0.00 1.68 0.05 93 1015.4
20260901014414 20 228 0.0 0.0 0.00 1.68 0.05 93 1015.4
20260901014222 20 228 0.0 0.0 0.00 1.68 0.05 93 1015.4
20260901014121 20 228 0.0 0.0 0.00 1.68 0.05 93 1015.5
20260901014022 21 228 0.0 0.0 0.00 1.68 0.05 93 1015.6
20260901013920 20 228 0.0 0.0 0.00 1.68 0.05 93 1015.5
20260901013806 20 228 0.0 0.0 0.00 1.70 0.05 93 1015.4
20260901013719 20 228 0.0 0.0 0.00 1.70 0.05 93 1015.4
20260901013618 21 228 0.0 0.0 0.00 1.70 0.05 93 1015.5
20260901013522 21 228 0.0 0.0 0.00 1.70 0.05 93 1015.6
20260901013518 21 228 0.0 0.0 0.00 1.70 0.05 93 1015.5
20260901013417 21 228 0.0 0.0 0.00 1.70 0.05 93 1015.5
20260901013305 21 228 0.0 0.0 0.00 1.70 0.05 93 1015.5
20260901013216 21 228 0.0 0.0 0.00 1.70 0.05 93 1015.5
20260901013116 21 228 0.0 0.0 0.00 1.70 0.05 93 1015.5
20260901013028 21 228 0.0 0.0 0.00 1.70 0.05 93 1015.5
20260901013024 21 228 0.0 0.0 0.00 1.70 0.05 93 1015.5
20260901013022 21 228 0.0 0.0 0.00 1.70 0.05 93 1015.6
20260901012805 21 228 0.0 0.0 0.00 1.70 0.05 93 1015.5
20260901012739 21 228 0.0 0.0 0.00 1.70 0.05 93 1015.5
20260901012734 21 228 0.0 0.0 0.00 1.70 0.05 93 1015.5
20260901012730 21 228 0.0 0.0 0.00 1.70 0.05 93 1015.5
20260901012521 21 228 0.0 0.0 0.00 1.70 0.05 93 1015.6
20260901012411 21 228 0.0 0.0 0.00 1.70 0.05 93 1015.5
20260901012306 21 228 0.0 0.0 0.00 1.70 0.05 93 1015.5
20260901012222 21 228 0.0 0.0 0.00 1.70 0.05 93 1015.5
20260901012217 21 228 0.0 0.0 0.00 1.70 0.05 93 1015.5
20260901012022 21 228 0.0 0.0 0.00 1.70 0.05 93 1015.5
20260901012007 21 228 0.0 0.0 0.00 1.70 0.05 93 1015.4
20260901011906 21 228 0.0 0.0 0.00 1.70 0.05 93 1015.5
20260901011808 21 228 0.0 0.0 0.00 1.70 0.05 93 1015.5
20260901011708 21 228 0.0 0.0 0.00 1.70 0.05 92 1015.5
20260901011607 21 228 0.0 0.0 0.00 1.70 0.05 92 1015.6
20260901011522 21 228 0.0 0.0 0.00 1.70 0.05 92 1015.6
20260901011517 21 228 0.0 0.0 0.00 1.70 0.05 92 1015.5
20260901011339 21 228 0.0 0.0 0.00 1.70 0.05 92 1015.5
20260901011335 21 228 0.0 0.0 0.00 1.70 0.05 92 1015.5
20260901011326 21 228 0.0 0.0 0.00 1.70 0.05 92 1015.6
20260901011022 21 228 0.0 0.0 0.00 1.70 0.05 92 1015.7
20260901011006 21 228 0.0 0.0 0.00 1.70 0.05 92 1015.6
20260901010905 21 228 0.0 0.0 0.00 1.70 0.05 92 1015.5
20260901010805 21 228 0.0 0.0 0.00 1.70 0.05 92 1015.6
20260901010704 21 228 0.0 0.0 0.00 1.70 0.05 92 1015.6
20260901010604 21 228 0.0 0.0 0.00 1.70 0.05 92 1015.6
20260901010522 21 228 0.0 0.0 0.00 1.70 0.05 92 1015.7
20260901010504 21 228 0.0 0.0 0.00 1.70 0.05 92 1015.6
20260901010355 21 228 0.0 0.0 0.00 1.70 0.05 92 1015.6
20260901010351 21 228 0.0 0.0 0.00 1.70 0.05 92 1015.6
20260901010346 21 228 0.0 0.0 0.00 1.70 0.05 92 1015.6
20260901010340 21 228 0.0 0.0 0.00 1.70 0.05 92 1015.6
20260901010227 21 228 0.0 0.0 0.00 1.70 0.05 92 1015.6
20260901010022 21 228 0.0 0.0 0.00 1.70 0.05 92 1015.7
20260901005804 21 228 0.0 0.0 0.00 1.70 0.05 92 1015.5
20260901005758 21 228 0.0 0.0 0.00 1.70 0.05 92 1015.5
20260901005658 21 228 0.0 0.0 0.00 1.70 0.05 92 1015.5
20260901005558 21 228 0.0 0.0 0.00 1.70 0.05 92 1015.5
20260901005522 21 228 0.0 0.0 0.00 1.70 0.05 92 1015.5
20260901005456 21 228 0.0 0.0 0.00 1.70 0.05 92 1015.4
20260901005356 21 228 0.0 0.0 0.00 1.70 0.05 92 1015.5
20260901005314 21 228 0.0 0.0 0.00 1.70 0.05 91 1015.5
20260901005310 21 228 0.0 0.0 0.00 1.70 0.05 91 1015.4
20260901005306 21 228 0.0 0.0 0.00 1.70 0.05 91 1015.4
20260901005112 21 228 0.0 0.0 0.00 1.70 0.05 91 1015.5
20260901005107 21 228 0.0 0.0 0.00 1.70 0.05 91 1015.4
20260901005103 21 228 0.0 0.0 0.00 1.70 0.05 91 1015.5
20260901005022 21 228 0.0 0.0 0.00 1.70 0.05 91 1015.6
20260901004912 21 228 0.0 0.0 0.00 1.70 0.05 91 1015.5
20260901004753 21 228 0.0 0.0 0.00 1.70 0.05 91 1015.4
20260901004652 21 228 0.0 0.0 0.00 1.70 0.05 91 1015.4
20260901004619 21 228 0.0 0.0 0.00 1.70 0.05 91 1015.4
20260901004552 21 228 0.0 0.0 0.00 1.70 0.05 91 1015.4
20260901004537 21 228 0.0 0.0 0.00 1.70 0.05 91 1015.5
20260901004521 21 228 0.0 0.0 0.00 1.70 0.05 91 1015.4
20260901004516 21 228 0.0 0.0 0.00 1.70 0.05 91 1015.4
20260901004506 21 228 0.0 0.0 0.00 1.70 0.05 91 1015.4
20260901004150 21 228 0.0 0.0 0.00 1.70 0.05 91 1015.4
20260901004050 21 228 0.0 0.0 0.00 1.70 0.05 91 1015.4
20260901004022 22 228 0.0 0.0 0.00 1.70 0.05 91 1015.5
20260901004017 21 228 0.0 0.0 0.00 1.70 0.05 90 1015.4
20260901004012 21 228 0.0 0.0 0.00 1.70 0.05 91 1015.4
20260901003854 21 228 0.0 0.0 0.00 1.70 0.05 90 1015.4
20260901003648 22 228 0.0 0.0 0.00 1.70 0.05 90 1015.4
20260901003552 22 228 0.0 0.0 0.00 1.70 0.05 90 1015.5
20260901003545 22 228 0.0 0.0 0.00 1.70 0.05 90 1015.4
20260901003512 22 228 0.0 0.0 0.00 1.70 0.05 90 1015.4
20260901003358 22 228 0.0 0.0 0.00 1.70 0.05 90 1015.4
20260901003349 22 228 0.0 0.0 0.00 1.70 0.05 90 1015.3
20260901003143 22 228 0.0 0.0 0.00 1.70 0.05 90 1015.3
20260901003128 22 228 0.0 0.0 0.00 1.70 0.05 90 1015.3
20260901003036 22 228 0.0 0.0 0.00 1.70 0.05 90 1015.4
20260901002942 22 228 0.0 0.0 0.00 1.70 0.05 90 1015.3
20260901002903 22 228 0.0 0.0 0.00 1.70 0.05 90 1015.3
20260901002741 22 228 0.0 0.0 0.00 1.70 0.05 90 1015.3
20260901002640 22 228 0.0 0.0 0.00 1.70 0.05 90 1015.3
20260901002540 22 228 0.0 0.0 0.00 1.70 0.05 90 1015.3
20260901002522 22 228 0.0 0.0 0.00 1.70 0.05 89 1015.3
20260901002440 22 228 0.0 0.0 0.00 1.70 0.05 89 1015.2
20260901002340 22 228 0.0 0.0 0.00 1.70 0.05 89 1015.2
20260901002239 22 228 0.0 0.0 0.00 1.70 0.05 89 1015.3
20260901002139 22 228 0.0 0.0 0.00 1.70 0.05 89 1015.4
20260901002038 22 228 0.0 0.0 0.00 1.70 0.05 89 1015.4
20260901002022 22 228 0.0 0.0 0.00 1.70 0.05 89 1015.4
20260901001938 22 228 0.0 0.0 0.00 1.70 0.05 89 1015.4
20260901001837 22 228 0.0 0.0 0.00 1.70 0.05 89 1015.3
20260901001737 22 228 0.0 0.0 0.00 1.70 0.05 89 1015.4
20260901001636 22 228 0.0 0.0 0.00 1.70 0.05 89 1015.4
20260901001536 22 228 0.0 0.0 0.00 1.70 0.05 89 1015.4
20260901001521 22 228 0.0 0.0 0.00 1.70 0.05 89 1015.4
20260901001435 22 228 0.0 0.0 0.00 1.70 0.05 89 1015.4
20260901001349 22 228 0.0 0.0 0.00 1.70 0.05 89 1015.4
20260901001340 22 228 0.0 0.0 0.00 1.70 0.05 88 1015.4
20260901001134 22 228 0.0 0.0 0.00 1.70 0.05 88 1015.4
20260901001046 22 228 0.0 0.0 0.00 1.70 0.05 88 1015.4
20260901001042 22 228 0.0 0.0 0.00 1.70 0.05 88 1015.4
20260901001022 22 228 0.0 0.0 0.00 1.70 0.05 88 1015.4
20260901000833 22 228 0.0 0.0 0.00 1.70 0.05 88 1015.4
20260901000731 22 228 0.0 0.0 0.00 1.70 0.05 88 1015.4
20260901000631 22 228 0.0 0.0 0.00 1.70 0.05 88 1015.4
20260901000531 22 228 0.0 0.0 0.00 1.70 0.05 88 1015.3
20260901000522 22 228 0.0 0.0 0.00 1.70 0.05 88 1015.3
20260901000519 22 228 0.0 0.0 0.00 1.70 0.05 87 1015.2
20260901000514 22 228 0.0 0.0 0.00 1.70 0.05 88 1015.3
20260901000509 22 228 0.0 0.0 0.00 1.70 0.05 88 1015.3
20260901000230 22 228 0.0 0.0 0.00 1.70 0.05 87 1015.2
20260901000130 23 228 0.0 0.0 0.00 1.70 0.05 87 1015.2
20260901000029 23 228 0.0 0.0 0.00 1.70 0.05 87 1015.2
20260901000022 23 228 0.0 0.0 0.00 1.70 0.05 87 1015.2
20260831235929 23 228 0.0 0.0 0.00 1.70 0.05 87 1015.2
20260831235856 23 228 0.0 0.0 0.00 1.70 0.05 86 1015.2
20260831235851 23 228 0.0 0.0 0.00 1.70 0.05 87 1015.2
20260831235842 23 228 0.0 0.0 0.00 1.70 0.05 87 1015.2
20260831235527 23 228 0.0 0.0 0.00 1.70 0.05 86 1015.2
20260831235523 23 228 0.0 0.0 0.00 1.70 0.05 86 1015.2
20260831235510 23 228 0.0 0.0 0.00 1.70 0.05 86 1015.2
20260831235426 23 228 0.0 0.0 0.00 1.70 0.05 86 1015.2
20260831235358 23 228 0.0 0.0 0.00 1.70 0.05 86 1015.2
20260831235239 23 228 0.0 0.0 0.00 1.70 0.05 85 1015.2
20260831235234 23 228 0.0 0.0 0.00 1.70 0.05 86 1015.2
20260831235025 23 228 0.0 0.0 0.00 1.70 0.05 85 1015.2
20260831235022 23 228 0.0 0.0 0.00 1.70 0.05 85 1015.1
20260831234924 23 228 0.0 0.0 0.00 1.70 0.05 85 1015.1
20260831234838 23 228 0.0 0.0 0.00 1.70 0.05 85 1015.2
20260831234830 23 228 0.0 0.0 0.00 1.70 0.05 85 1015.1
20260831234622 23 228 0.0 0.0 0.00 1.70 0.05 85 1015.1
20260831234521 23 228 0.0 0.0 0.00 1.70 0.05 85 1015.2
20260831234421 23 228 0.0 0.0 0.00 1.70 0.05 85 1015.1
20260831234349 23 228 0.0 0.0 0.00 1.70 0.05 84 1015.1
20260831234344 23 228 0.0 0.0 0.00 1.70 0.05 84 1015.2
20260831234336 23 228 0.0 0.0 0.00 1.70 0.05 84 1015.1
20260831234022 23 228 0.0 0.0 0.00 1.70 0.05 83 1015.1
20260831234019 23 228 0.0 0.0 0.00 1.70 0.05 84 1015.1
20260831233919 23 228 0.0 0.0 0.00 1.70 0.05 83 1015.1
20260831233818 23 228 0.0 0.0 0.00 1.70 0.05 83 1015.1
20260831233744 23 228 0.0 0.0 0.00 1.70 0.05 83 1015.1
20260831233740 23 228 0.0 0.0 0.00 1.70 0.05 83 1015.1
20260831233734 23 228 0.0 0.0 0.00 1.70 0.05 83 1015.1
20260831233522 23 228 0.0 0.0 0.00 1.70 0.05 83 1015.1
20260831233416 23 228 0.0 0.0 0.00 1.70 0.05 83 1015.1
20260831233317 24 228 0.0 0.0 0.00 1.70 0.05 83 1015.1
20260831233216 24 228 0.0 0.0 0.00 1.70 0.05 83 1015.1
20260831233114 24 228 0.0 0.0 0.00 1.70 0.05 83 1015.2
20260831233022 24 228 0.0 0.0 0.00 1.70 0.05 83 1015.2
20260831233013 24 228 0.0 0.0 0.00 1.70 0.05 83 1015.2
20260831232954 24 228 0.0 0.0 0.00 1.70 0.05 82 1015.2
20260831232948 24 228 0.0 0.0 0.00 1.70 0.05 83 1015.2
20260831232835 24 228 0.0 0.0 0.00 1.70 0.05 82 1015.2
20260831232827 24 228 0.0 0.0 0.00 1.70 0.05 82 1015.2
20260831232522 24 228 0.0 0.0 0.00 1.70 0.05 82 1015.1
20260831232510 24 228 0.0 0.0 0.00 1.70 0.05 82 1015.1
20260831232408 24 228 0.0 0.0 0.00 1.70 0.05 82 1015.1
20260831232309 24 228 0.0 0.0 0.00 1.70 0.05 81 1015.1
20260831232243 24 228 0.0 0.0 0.00 1.70 0.05 81 1015.2
20260831232209 24 228 0.0 0.0 0.00 1.70 0.05 81 1015.2
20260831232108 24 228 0.0 0.0 0.00 1.70 0.05 81 1015.2
20260831232022 24 228 0.0 0.0 0.00 1.70 0.05 81 1015.3
20260831232008 24 228 0.0 0.0 0.00 1.70 0.05 81 1015.3
20260831231907 24 228 0.0 0.0 0.00 1.70 0.05 80 1015.3
20260831231807 24 228 0.0 0.0 0.00 1.70 0.05 80 1015.2
20260831231742 24 228 0.0 0.0 0.00 1.70 0.05 80 1015.2
20260831231706 24 228 0.0 0.0 0.00 1.70 0.05 80 1015.3
20260831231606 25 228 0.0 0.0 0.00 1.70 0.05 80 1015.3
20260831231522 25 228 0.0 0.0 0.00 1.70 0.05 80 1015.3
20260831231519 25 228 0.0 0.0 0.00 1.70 0.05 80 1015.3
20260831231514 25 228 0.0 0.0 0.00 1.70 0.05 80 1015.3
20260831231304 25 228 0.0 0.0 0.00 1.70 0.05 80 1015.3
20260831231242 25 228 0.0 0.0 0.00 1.70 0.05 81 1015.3
20260831231203 25 228 0.0 0.0 0.00 1.70 0.05 81 1015.3
20260831231104 25 228 0.0 0.0 0.00 1.70 0.05 81 1015.4
20260831231022 25 228 0.0 0.0 0.00 1.70 0.05 81 1015.4
20260831231004 25 228 0.0 0.0 0.00 1.70 0.05 81 1015.4
20260831230902 25 228 0.0 0.0 0.00 1.70 0.05 81 1015.4
20260831230740 25 228 0.0 0.0 0.00 1.70 0.05 80 1015.4
20260831230701 25 228 0.0 0.0 0.00 1.70 0.05 80 1015.4
20260831230627 25 228 0.0 0.0 0.00 1.70 0.05 79 1015.4
20260831230623 25 228 0.0 0.0 0.00 1.70 0.05 79 1015.4
20260831230618 25 228 0.0 0.0 0.00 1.70 0.05 79 1015.4
20260831230613 25 228 0.0 0.0 0.00 1.70 0.05 79 1015.4
20260831230604 25 228 0.0 0.0 0.00 1.70 0.05 79 1015.4
20260831230521 25 228 0.0 0.0 0.00 1.70 0.05 79 1015.4
20260831230200 25 228 0.0 0.0 0.00 1.70 0.05 78 1015.4
20260831230100 25 228 0.0 0.0 0.00 1.70 0.05 79 1015.4
20260831230039 25 228 0.0 0.0 0.00 1.70 0.05 79 1015.4
20260831230034 25 228 0.0 0.0 0.00 1.70 0.05 79 1015.4
20260831230022 25 228 0.0 0.0 0.00 1.70 0.05 79 1015.4
20260831225920 25 228 0.0 0.0 0.00 1.70 0.05 79 1015.4
20260831225803 25 228 0.0 0.0 0.00 1.70 0.05 79 1015.4
20260831225556 25 228 0.0 0.0 0.00 1.70 0.05 79 1015.4
20260831225522 25 228 0.0 0.0 0.00 1.70 0.05 79 1015.4
20260831225456 25 228 0.0 0.0 0.00 1.70 0.05 79 1015.4
20260831225422 25 228 0.0 0.0 0.00 1.70 0.05 79 1015.4
20260831225301 25 228 0.0 0.0 0.00 1.70 0.05 79 1015.4
20260831225054 25 228 0.0 0.0 0.00 1.70 0.05 78 1015.5
20260831225037 25 228 0.0 0.0 0.00 1.70 0.05 78 1015.5
20260831224954 25 228 0.0 0.0 0.00 1.70 0.05 78 1015.5
20260831224735 25 228 0.0 0.0 0.00 1.70 0.05 78 1015.5
20260831224653 25 228 0.0 0.0 0.00 1.70 0.05 78 1015.6
20260831224553 25 228 0.0 0.0 0.00 1.70 0.05 79 1015.6
20260831224522 25 228 0.0 0.0 0.00 1.70 0.05 79 1015.6
20260831224451 25 228 0.0 0.0 0.00 1.70 0.05 79 1015.6
20260831224351 25 228 0.0 0.0 0.00 1.70 0.05 79 1015.5
20260831224235 25 228 0.0 0.0 0.00 1.70 0.05 79 1015.6
20260831224150 25 228 0.0 0.0 0.00 1.70 0.05 79 1015.6
20260831224050 25 228 0.0 0.0 0.00 1.70 0.05 79 1015.6
20260831224022 25 228 0.0 0.0 0.00 1.70 0.05 79 1015.6
20260831223949 25 228 0.0 0.0 0.00 1.70 0.05 79 1015.6
20260831223849 25 228 0.0 0.0 0.00 1.70 0.05 79 1015.6
20260831223734 25 228 0.0 0.0 0.00 1.70 0.05 79 1015.6
20260831223648 25 228 0.0 0.0 0.00 1.70 0.05 79 1015.6
20260831223546 25 228 0.0 0.0 0.00 1.70 0.05 78 1015.6
20260831223522 25 228 0.0 0.0 0.00 1.70 0.05 78 1015.6
20260831223446 25 228 0.0 0.0 0.00 1.70 0.05 78 1015.6
20260831223357 25 228 0.0 0.0 0.00 1.70 0.05 78 1015.7
20260831223353 25 228 0.0 0.0 0.00 1.70 0.05 78 1015.6
20260831223233 25 228 0.0 0.0 0.00 1.70 0.05 78 1015.7
20260831223143 25 228 0.0 0.0 0.00 1.70 0.05 78 1015.6
20260831223043 25 228 0.0 0.0 0.00 1.70 0.05 78 1015.7
20260831223021 25 228 0.0 0.0 0.00 1.70 0.05 79 1015.6
20260831222942 25 228 0.0 0.0 0.00 1.70 0.05 79 1015.6
20260831222842 25 228 0.0 0.0 0.00 1.70 0.05 79 1015.6
20260831222741 25 228 0.0 0.0 0.00 1.70 0.05 79 1015.6
20260831222734 25 228 0.0 0.0 0.00 1.70 0.05 80 1015.6
20260831222640 25 228 0.0 0.0 0.00 1.70 0.05 80 1015.7
20260831222541 25 228 0.0 0.0 0.00 1.70 0.05 80 1015.6
20260831222522 25 228 0.0 0.0 0.00 1.70 0.05 80 1015.6
20260831222440 25 228 0.0 0.0 0.00 1.70 0.05 80 1015.6
20260831222340 25 228 0.0 0.0 0.00 1.70 0.05 80 1015.6
20260831222232 25 228 0.0 0.0 0.00 1.70 0.05 79 1015.6
20260831222139 25 228 0.0 0.0 0.00 1.70 0.05 80 1015.6
20260831222053 24 228 0.0 0.0 0.00 1.70 0.05 80 1015.6
20260831222047 25 228 0.0 0.0 0.00 1.70 0.05 80 1015.6
20260831222022 25 228 0.0 0.0 0.00 1.70 0.05 80 1015.6
20260831221838 24 228 0.0 0.0 0.00 1.70 0.05 80 1015.7
20260831221730 24 228 0.0 0.0 0.00 1.70 0.05 80 1015.7
20260831221636 24 228 0.0 0.0 0.00 1.70 0.05 80 1015.7
20260831221536 24 228 0.0 0.0 0.00 1.70 0.05 81 1015.7
20260831221522 24 228 0.0 0.0 0.00 1.70 0.05 81 1015.7
20260831221436 24 228 0.0 0.0 0.00 1.70 0.05 81 1015.7
20260831221403 24 228 0.0 0.0 0.00 1.70 0.05 81 1015.7
20260831221249 24 228 0.0 0.0 0.00 1.70 0.05 81 1015.7
20260831221243 24 228 0.0 0.0 0.00 1.70 0.05 81 1015.7
20260831221034 24 228 0.0 0.0 0.00 1.70 0.05 81 1015.7
20260831221022 24 228 0.0 0.0 0.00 1.70 0.05 81 1015.7
20260831220934 24 228 0.0 0.0 0.00 1.70 0.05 81 1015.7
20260831220834 24 228 0.0 0.0 0.00 1.70 0.05 81 1015.7
20260831220728 24 228 0.0 0.0 0.00 1.70 0.05 80 1015.6
20260831220633 24 228 0.0 0.0 0.00 1.70 0.05 81 1015.7
20260831220546 24 228 0.0 0.0 0.00 1.70 0.05 82 1015.7
20260831220541 24 228 0.0 0.0 0.00 1.70 0.05 82 1015.7
20260831220522 24 228 0.0 0.0 0.00 1.70 0.05 82 1015.7
20260831220331 24 228 0.0 0.0 0.00 1.70 0.05 82 1015.7
20260831220226 24 228 0.0 0.0 0.00 1.70 0.05 83 1015.7
20260831220130 24 228 0.0 0.0 0.00 1.70 0.05 82 1015.7
20260831220030 24 228 0.0 0.0 0.00 1.70 0.05 82 1015.7
20260831220022 24 228 0.0 0.0 0.00 1.70 0.05 82 1015.8
20260831215929 24 228 0.0 0.0 0.00 1.70 0.05 82 1015.8
20260831215827 24 228 0.0 0.0 0.00 1.70 0.05 82 1015.8
20260831215727 24 228 0.0 0.0 0.00 1.70 0.05 81 1015.7
20260831215625 24 228 0.0 0.0 0.00 1.70 0.05 81 1015.7
20260831215525 24 228 0.0 0.0 0.00 1.70 0.05 82 1015.7
20260831215522 24 228 0.0 0.0 0.00 1.70 0.05 83 1015.7
20260831215448 24 228 0.0 0.0 0.00 1.70 0.05 82 1015.8
20260831215425 24 228 0.0 0.0 0.00 1.70 0.05 83 1015.7
20260831215338 24 228 0.0 0.0 0.00 1.70 0.05 82 1015.8
20260831215224 24 228 0.0 0.0 0.00 1.70 0.05 82 1015.8
20260831215124 24 228 0.0 0.0 0.00 1.70 0.05 82 1015.8
20260831215023 24 228 0.0 0.0 0.00 1.70 0.05 81 1015.8
20260831214954 24 228 0.0 0.0 0.00 1.70 0.05 82 1015.8
20260831214923 24 228 0.0 0.0 0.00 1.70 0.05 81 1015.8
20260831214851 24 228 0.0 0.0 0.00 1.70 0.05 84 1015.8
20260831214846 24 228 0.0 0.0 0.00 1.70 0.05 81 1015.8
20260831214731 24 228 0.0 0.0 0.00 1.70 0.05 83 1015.8
20260831214536 24 228 0.0 0.0 0.00 1.70 0.05 84 1015.8
20260831214531 24 228 0.0 0.0 0.00 1.70 0.05 84 1015.8
20260831214522 24 228 0.0 0.0 0.00 1.70 0.05 84 1015.8
20260831214347 24 228 0.0 0.0 0.00 1.70 0.05 84 1015.9
20260831214229 24 228 0.0 0.0 0.00 1.70 0.05 84 1015.8
20260831214022 24 228 0.0 0.0 0.00 1.70 0.05 83 1016.0
20260831214019 24 228 0.0 0.0 0.00 1.70 0.05 83 1015.8
20260831213917 24 228 0.0 0.0 0.00 1.70 0.05 83 1016.0
20260831213816 24 228 0.0 0.0 0.00 1.70 0.05 83 1015.9
20260831213716 24 228 0.0 0.0 0.00 1.70 0.05 83 1016.0
20260831213616 24 228 0.0 0.0 0.00 1.70 0.05 83 1015.9
20260831213522 24 228 0.0 0.0 0.00 1.70 0.05 83 1016.0
20260831213515 24 228 0.0 0.0 0.00 1.70 0.05 83 1015.9
20260831213415 24 228 0.0 0.0 0.00 1.70 0.05 83 1016.0
20260831213334 24 228 0.0 0.0 0.00 1.73 0.05 83 1016.0
20260831213329 24 228 0.0 0.0 0.00 1.73 0.05 83 1016.0
20260831213320 24 228 0.0 0.0 0.00 1.73 0.05 83 1016.0
20260831213114 24 228 0.0 0.0 0.00 1.73 0.05 83 1016.1
20260831213022 24 228 0.0 0.0 0.00 1.78 0.05 84 1016.1
20260831213014 24 228 0.0 0.0 0.00 1.78 0.05 84 1016.1
20260831212912 24 228 0.0 0.0 0.00 1.85 0.05 84 1016.1
20260831212812 24 228 0.0 0.0 0.00 1.98 0.05 83 1016.1
20260831212722 24 228 0.0 0.0 0.00 2.03 0.05 83 1016.1
20260831212711 24 228 0.0 0.0 0.00 2.03 0.05 83 1016.1
20260831212611 24 228 0.0 0.0 0.00 2.03 0.05 83 1016.1
20260831212522 23 228 0.0 0.0 0.00 2.03 0.05 83 1016.0
20260831212510 23 228 0.0 0.0 0.00 2.03 0.05 83 1016.1
20260831212410 23 228 0.0 0.0 0.00 2.03 0.05 83 1016.0
20260831212310 23 228 0.0 0.0 0.00 2.03 0.05 83 1016.1
20260831212220 23 228 0.0 0.0 0.00 2.03 0.05 83 1016.0
20260831212210 23 228 0.0 0.0 0.00 2.03 0.05 83 1016.0
20260831212108 23 228 0.0 0.0 0.00 2.03 0.05 83 1016.1
20260831212022 23 228 0.0 0.0 0.00 2.03 0.05 85 1016.0
20260831212007 23 228 0.0 0.0 0.00 2.03 0.05 83 1016.0
20260831211907 23 228 0.0 0.0 0.00 2.03 0.05 86 1016.0
20260831211820 23 228 0.0 0.0 0.00 2.03 0.05 86 1016.0
20260831211812 23 228 0.0 0.0 0.00 2.03 0.05 85 1016.0
20260831211605 23 228 0.0 0.0 0.00 2.03 0.05 85 1016.0
20260831211522 23 228 0.0 0.0 0.00 2.03 0.05 85 1016.0
20260831211505 23 228 0.0 0.0 0.00 2.03 0.05 85 1016.0
20260831211441 23 228 0.0 0.0 0.00 2.03 0.05 85 1016.0
20260831211405 23 228 0.0 0.0 0.00 2.03 0.05 85 1016.0
20260831211327 23 228 0.0 0.0 0.00 2.03 0.05 85 1016.0
20260831211203 23 228 0.0 0.0 0.00 2.03 0.05 85 1016.0
20260831211103 23 228 0.0 0.0 0.00 2.03 0.05 85 1015.9
20260831211022 23 228 0.0 0.0 0.00 2.03 0.05 85 1015.9
20260831211013 23 228 0.0 0.0 0.00 2.03 0.05 86 1015.9
20260831211009 23 228 0.0 0.0 0.00 2.03 0.05 85 1015.9
20260831210800 23 228 0.0 0.0 0.00 2.03 0.05 86 1016.0
20260831210718 23 228 0.0 0.0 0.00 2.03 0.05 86 1016.0
20260831210659 23 228 0.0 0.0 0.00 2.03 0.05 86 1016.1
20260831210557 23 228 0.0 0.0 0.00 2.03 0.05 86 1016.1
20260831210522 23 228 0.0 0.0 0.00 2.03 0.05 86 1016.1
20260831210458 23 228 0.0 0.0 0.00 2.03 0.05 86 1016.1
20260831210355 23 228 0.0 0.0 0.00 2.03 0.05 86 1016.1
20260831210255 23 228 0.0 0.0 0.00 2.03 0.05 86 1016.1
20260831210228 23 228 0.0 0.0 0.03 2.03 0.05 85 1016.1
20260831210224 23 228 0.0 0.0 0.03 2.03 0.05 85 1016.1
20260831210219 23 228 0.0 0.0 0.00 2.03 0.05 86 1016.1
20260831210213 23 228 0.0 0.0 0.00 2.03 0.05 86 1016.1
20260831210022 23 228 0.0 0.0 0.03 2.03 0.05 85 1016.1
20260831205906 23 228 0.0 0.0 0.03 2.03 0.05 85 1016.0
20260831205902 23 228 0.0 0.0 0.03 2.03 0.05 85 1016.1
20260831205714 23 228 0.0 0.0 0.03 2.03 0.05 85 1016.0
20260831205652 23 228 0.0 0.0 0.03 2.03 0.05 85 1016.1
20260831205550 23 228 0.0 0.0 0.03 2.03 0.05 85 1016.1
20260831205522 23 228 0.0 0.0 0.03 2.03 0.05 85 1016.1
20260831205516 24 228 0.0 0.0 0.03 2.03 0.05 86 1016.1
20260831205512 24 228 0.0 0.0 0.03 2.03 0.05 87 1016.1
20260831205507 23 228 0.0 0.0 0.03 2.03 0.05 85 1016.1
20260831205212 24 228 0.0 0.0 0.03 2.03 0.05 87 1016.1
20260831205148 24 228 0.0 0.0 0.03 2.03 0.05 87 1016.2
20260831205048 24 228 0.0 0.0 0.03 2.03 0.05 87 1016.2
20260831205022 24 228 0.0 0.0 0.03 2.03 0.05 87 1016.2
20260831204948 24 228 0.0 0.0 0.03 2.03 0.05 87 1016.2
20260831204847 24 228 0.0 0.0 0.03 2.03 0.05 87 1016.1
20260831204747 24 228 0.0 0.0 0.03 2.03 0.05 87 1016.1
20260831204712 24 228 0.0 0.0 0.03 2.03 0.05 86 1016.1
20260831204646 24 228 0.0 0.0 0.03 2.03 0.05 87 1016.1
20260831204613 24 228 0.0 0.0 0.03 2.03 0.05 87 1016.0
20260831204609 24 228 0.0 0.0 0.03 2.03 0.05 87 1016.0
20260831204603 24 228 0.0 0.0 0.03 2.03 0.05 87 1016.0
20260831204536 24 228 0.0 0.0 0.03 2.03 0.05 87 1016.0
20260831204245 24 228 0.0 0.0 0.03 2.03 0.05 86 1016.0
20260831204210 23 228 0.0 0.0 0.03 2.03 0.05 86 1016.0
20260831204144 24 228 0.0 0.0 0.03 2.03 0.05 86 1016.1
20260831204044 24 228 0.0 0.0 0.03 2.03 0.05 86 1016.1
20260831204022 24 228 0.0 0.0 0.03 2.03 0.05 86 1016.1
20260831204012 23 228 0.0 0.0 0.03 2.03 0.05 86 1016.1
20260831203943 24 228 0.0 0.0 0.03 2.03 0.05 87 1016.1
20260831203911 23 228 0.0 0.0 0.03 2.03 0.05 86 1016.1
20260831203906 24 228 0.0 0.0 0.03 2.03 0.05 87 1016.1
20260831203857 24 228 0.0 0.0 0.03 2.03 0.05 87 1016.1
20260831203542 23 228 0.0 0.0 0.03 2.03 0.05 85 1016.1
20260831203522 23 228 0.0 0.0 0.03 2.03 0.05 85 1016.1
20260831203441 23 228 0.0 0.0 0.03 2.03 0.05 85 1016.1
20260831203342 23 228 0.0 0.0 0.03 2.03 0.05 85 1016.1
20260831203242 23 228 0.0 0.0 0.03 2.03 0.05 84 1016.1
20260831203207 23 228 0.0 0.0 0.03 2.03 0.05 84 1016.1
20260831203141 23 228 0.0 0.0 0.03 2.03 0.05 84 1016.1
20260831203041 24 228 0.0 0.0 0.05 2.03 0.05 85 1016.2
20260831203022 24 228 0.0 0.0 0.05 2.03 0.05 84 1016.1
20260831202940 24 228 0.0 0.0 0.05 2.03 0.05 84 1016.1
20260831202840 24 228 0.0 0.0 0.05 2.03 0.05 85 1016.2
20260831202824 24 228 0.0 0.0 0.05 2.03 0.05 85 1016.1
20260831202820 24 228 0.0 0.0 0.05 2.03 0.05 85 1016.1
20260831202815 24 228 0.0 0.0 0.05 2.03 0.05 85 1016.2
20260831202807 24 228 0.0 0.0 0.05 2.03 0.05 85 1016.2
20260831202656 24 228 0.0 0.0 0.05 2.03 0.05 85 1016.2
20260831202523 24 228 0.0 0.0 0.05 2.03 0.05 85 1016.1
20260831202405 24 228 0.0 0.0 0.05 2.03 0.05 85 1016.2
20260831202400 24 228 0.0 0.0 0.05 2.03 0.05 85 1016.2
20260831202351 24 228 0.0 0.0 0.05 2.03 0.05 85 1016.2
20260831202036 24 228 0.0 0.0 0.05 2.03 0.05 85 1016.3
20260831202022 24 228 0.0 0.0 0.05 2.03 0.05 84 1016.2
20260831201934 24 228 0.0 0.0 0.05 2.03 0.05 84 1016.2
20260831201859 24 228 0.0 0.0 0.05 2.03 0.05 84 1016.2
20260831201745 24 228 0.0 0.0 0.05 2.03 0.05 84 1016.2
20260831201737 24 228 0.0 0.0 0.05 2.03 0.05 84 1016.2
20260831201731 24 228 0.0 0.0 0.05 2.03 0.05 84 1016.2
20260831201522 24 228 0.0 0.0 0.05 2.03 0.05 84 1016.2
20260831201508 24 228 0.0 0.0 0.05 2.03 0.05 84 1016.2
20260831201355 24 228 0.0 0.0 0.05 2.03 0.05 84 1016.2
20260831201238 24 228 0.0 0.0 0.05 2.03 0.05 84 1016.2
20260831201038 24 228 0.0 0.0 0.05 2.03 0.05 84 1016.3
20260831201029 25 228 0.0 0.0 0.05 2.03 0.05 84 1016.2
20260831200830 25 228 0.0 0.0 0.05 2.03 0.05 83 1016.2
20260831200809 25 228 0.0 0.0 0.05 2.03 0.05 82 1016.2
20260831200629 25 228 0.0 0.0 0.05 2.03 0.05 83 1016.3
20260831200528 25 228 0.0 0.0 0.05 2.03 0.05 82 1016.3
20260831200522 25 228 0.0 0.0 0.05 2.03 0.05 82 1016.4
20260831200456 25 228 0.0 0.0 0.05 2.03 0.05 83 1016.4
20260831200452 25 228 0.0 0.0 0.05 2.03 0.05 82 1016.4
20260831200447 25 228 0.0 0.0 0.05 2.03 0.05 82 1016.4
20260831200200 25 228 0.0 0.0 0.05 2.03 0.05 83 1016.4
20260831200128 25 228 0.0 0.0 0.03 2.01 0.05 83 1016.4
20260831200037 25 228 0.0 0.0 0.03 2.01 0.03 82 1016.4
20260831200027 25 228 0.0 0.0 0.03 2.01 0.03 82 1016.4
20260831195927 25 228 0.0 0.0 0.03 2.01 0.03 82 1016.4
20260831195838 25 228 0.0 0.0 0.03 2.01 0.03 81 1016.4
20260831195834 25 228 0.0 0.0 0.03 2.01 0.03 81 1016.4
20260831195659 25 228 0.0 0.0 0.03 2.01 0.03 81 1016.4
20260831195624 25 228 0.0 0.0 0.03 2.01 0.03 81 1016.4
20260831195524 25 228 0.0 0.0 0.03 2.01 0.03 81 1016.4
20260831195522 25 228 0.0 0.0 0.03 2.01 0.03 81 1016.4
20260831195422 25 228 0.0 0.0 0.03 2.01 0.03 80 1016.4
20260831195322 25 228 0.0 0.0 0.03 2.01 0.03 80 1016.5
20260831195222 25 228 0.0 0.0 0.03 2.01 0.03 80 1016.5
20260831195159 25 228 0.0 0.0 0.03 2.01 0.03 80 1016.5
20260831195134 25 228 0.0 0.0 0.03 2.01 0.03 80 1016.5
20260831195130 25 228 0.0 0.0 0.03 2.01 0.03 80 1016.5
20260831195022 25 228 0.0 0.0 0.03 2.01 0.03 80 1016.5
20260831194918 25 228 0.0 0.0 0.03 2.01 0.03 80 1016.5
20260831194818 25 228 0.0 0.0 0.03 2.01 0.03 79 1016.4
20260831194719 25 228 0.0 0.0 0.03 2.01 0.03 79 1016.4
20260831194659 25 228 0.0 0.0 0.03 2.01 0.03 79 1016.4
20260831194618 25 228 0.0 0.0 0.03 2.01 0.03 79 1016.4
20260831194522 25 228 0.0 0.0 0.03 2.01 0.03 77 1016.4
20260831194518 25 228 0.0 0.0 0.03 2.01 0.03 77 1016.3
20260831194425 25 228 0.0 0.0 0.03 2.01 0.03 75 1016.5
20260831194416 25 228 0.0 0.0 0.03 2.01 0.03 77 1016.4
20260831194317 25 228 0.0 0.0 0.03 2.01 0.03 76 1016.4
20260831194308 25 228 0.0 0.0 0.03 2.01 0.03 75 1016.5
20260831194127 25 228 0.0 0.0 0.03 2.01 0.03 74 1016.5
20260831194123 25 228 0.0 0.0 0.03 2.01 0.03 75 1016.5
20260831194022 26 228 0.0 0.0 0.03 2.01 0.03 74 1016.6
20260831193914 26 228 0.0 0.0 0.03 2.01 0.03 74 1016.5
20260831193813 26 228 0.0 0.0 0.03 2.01 0.03 74 1016.5
20260831193712 26 228 0.0 0.0 0.03 2.01 0.03 74 1016.5
20260831193657 26 228 0.0 0.0 0.03 2.01 0.03 74 1016.6
20260831193612 26 228 0.0 0.0 0.03 2.01 0.03 75 1016.6
20260831193522 26 228 0.0 0.0 0.03 2.01 0.03 76 1016.7
20260831193511 26 228 0.0 0.0 0.03 2.01 0.03 76 1016.6
20260831193410 26 228 0.0 0.0 0.03 2.01 0.03 76 1016.6
20260831193310 26 228 0.0 0.0 0.03 2.01 0.03 76 1016.5
20260831193209 26 228 0.0 0.0 0.03 2.01 0.03 76 1016.6
20260831193157 26 228 0.0 0.0 0.03 2.01 0.03 76 1016.6
20260831193109 26 228 0.0 0.0 0.00 1.98 0.00 76 1016.6
20260831193022 26 228 0.0 0.0 0.00 1.98 0.00 77 1016.7
20260831193009 26 228 0.0 0.0 0.00 1.98 0.00 77 1016.6
20260831192907 26 228 0.0 0.0 0.00 1.98 0.00 76 1016.6
20260831192807 26 228 0.0 0.0 0.00 1.98 0.00 74 1016.7
20260831192726 26 228 0.0 0.0 0.00 1.98 0.00 73 1016.8
20260831192721 26 228 0.0 0.0 0.00 1.98 0.00 73 1016.8
20260831192714 26 228 0.0 0.0 0.00 1.98 0.00 73 1016.8
20260831192522 26 228 0.0 0.0 0.00 1.98 0.00 73 1016.9
20260831192506 26 228 0.0 0.0 0.00 1.98 0.00 73 1016.8
20260831192405 26 228 0.0 0.0 0.00 1.98 0.00 72 1016.8
20260831192305 26 228 0.0 0.0 0.00 1.98 0.00 72 1016.8
20260831192204 26 228 0.0 0.0 0.00 1.98 0.00 71 1016.8
20260831192154 26 228 0.0 0.0 0.00 1.98 0.00 71 1016.8
20260831192103 26 228 0.0 0.0 0.00 1.98 0.00 71 1016.9
20260831192022 26 228 0.0 0.0 0.00 1.98 0.00 70 1017.0
20260831192003 26 228 0.0 0.0 0.00 1.98 0.00 70 1016.9
20260831191901 26 228 0.0 0.0 0.00 1.98 0.00 70 1016.9
20260831191801 26 228 0.0 0.0 0.00 1.98 0.00 70 1016.9
20260831191654 26 228 0.0 0.0 0.00 1.98 0.00 70 1016.9
20260831191558 26 228 0.0 0.0 0.00 1.98 0.00 70 1016.9
20260831191522 26 228 0.0 0.0 0.00 1.98 0.00 70 1017.0
20260831191459 26 228 0.0 0.0 0.00 1.98 0.00 70 1016.9
20260831191357 26 228 0.0 0.0 0.00 1.98 0.00 71 1016.8
20260831191314 26 228 0.0 0.0 0.00 1.98 0.00 70 1016.9
20260831191309 26 228 0.0 0.0 0.00 1.98 0.00 71 1016.8
20260831191153 26 228 0.0 0.0 0.00 1.98 0.00 70 1016.9
20260831191057 26 228 0.0 0.0 0.00 1.98 0.00 70 1016.9
20260831191022 26 228 0.0 0.0 0.00 1.98 0.00 71 1017.0
20260831190955 26 228 0.0 0.0 0.00 1.98 0.00 71 1016.9
20260831190916 26 228 0.0 0.0 0.00 1.98 0.00 70 1016.7
20260831190855 26 228 0.0 0.0 0.00 1.98 0.00 70 1016.8
20260831190808 26 228 0.0 0.0 0.00 1.98 0.00 70 1016.8
20260831190758 26 228 0.0 0.0 0.00 1.98 0.00 70 1016.7
20260831190555 26 228 0.0 0.0 0.00 1.98 0.00 71 1016.7
20260831190522 26 228 0.0 0.0 0.00 1.98 0.00 71 1016.9
20260831190354 26 228 0.0 0.0 0.00 1.98 0.00 71 1016.8
20260831190251 26 228 0.0 0.0 0.00 1.98 0.00 70 1016.8
20260831190151 26 228 0.0 0.0 0.00 1.98 0.00 69 1016.9
20260831190051 26 228 0.0 0.0 0.00 1.98 0.00 70 1016.8
20260831190022 26 228 0.0 0.0 0.00 1.98 0.00 70 1016.9
20260831185950 26 228 0.0 0.0 0.00 1.98 0.00 70 1016.8
20260831185929 26 228 0.0 0.0 0.00 1.98 0.00 69 1016.9
20260831185817 26 228 0.0 0.0 0.00 1.98 0.00 70 1016.7
20260831185812 26 228 0.0 0.0 0.00 1.98 0.00 70 1016.8
20260831185803 26 228 0.0 0.0 0.00 1.98 0.00 70 1016.8
20260831185522 26 228 0.0 0.0 0.00 1.98 0.00 69 1016.7
20260831185448 26 228 0.0 0.0 0.00 1.98 0.00 69 1016.7
20260831185347 26 228 0.0 0.0 0.00 1.98 0.00 71 1016.6
20260831185246 26 228 0.0 0.0 0.00 1.98 0.00 71 1016.7
20260831185152 26 228 0.0 0.0 0.00 1.98 0.00 70 1016.7
20260831185147 26 228 0.0 0.0 0.00 1.98 0.00 70 1016.7
20260831185046 26 228 0.0 0.0 0.00 1.98 0.00 70 1016.7
20260831185022 26 228 0.0 0.0 0.00 1.98 0.00 70 1017.0
20260831184946 26 228 0.0 0.0 0.00 1.98 0.00 69 1016.9
20260831184846 26 228 0.0 0.0 0.00 1.98 0.00 71 1016.9
20260831184745 26 228 0.0 0.0 0.00 1.98 0.00 70 1016.8
20260831184704 26 228 0.0 0.0 0.00 1.98 0.00 71 1016.8
20260831184654 26 228 0.0 0.0 0.00 1.98 0.00 70 1016.8
20260831184522 26 228 0.0 0.0 0.00 1.98 0.00 70 1016.9
20260831184444 26 228 0.0 0.0 0.00 1.98 0.00 70 1016.8
20260831184416 26 228 0.0 0.0 0.00 1.98 0.00 69 1016.7
20260831184411 26 228 0.0 0.0 0.00 1.98 0.00 70 1016.8
20260831184406 26 228 0.0 0.0 0.00 1.98 0.00 70 1016.8
20260831184248 26 228 0.0 0.0 0.00 1.98 0.00 70 1016.8
20260831184042 26 228 0.0 0.0 0.00 1.98 0.00 70 1016.8
20260831184022 26 228 0.0 0.0 0.00 1.98 0.00 70 1016.9
20260831183942 26 228 0.0 0.0 0.00 1.98 0.00 70 1016.8
20260831183841 26 228 0.0 0.0 0.00 1.98 0.00 69 1016.8
20260831183741 26 228 0.0 0.0 0.00 1.98 0.00 69 1016.8
20260831183640 26 228 0.0 0.0 0.00 1.98 0.00 69 1016.8
20260831183540 26 228 0.0 0.0 0.00 1.98 0.00 70 1016.9
20260831183537 26 228 0.0 0.0 0.00 1.98 0.00 69 1016.9
20260831183438 26 228 0.0 0.0 0.00 1.98 0.00 69 1016.9
20260831183338 26 228 0.0 0.0 0.00 1.98 0.00 69 1017.0
20260831183238 26 228 0.0 0.0 0.00 1.98 0.00 68 1017.0
20260831183138 26 228 0.0 0.0 0.00 1.98 0.00 68 1017.0
20260831183037 26 228 0.0 0.0 0.00 1.98 0.00 67 1017.0
20260831183022 26 228 0.0 0.0 0.00 1.98 0.00 67 1017.0
20260831183018 26 228 0.0 0.0 0.00 1.98 0.00 67 1017.0
20260831182836 26 228 0.0 0.0 0.00 1.98 0.00 69 1017.0
20260831182755 26 228 0.0 0.0 0.00 1.98 0.00 69 1017.0
20260831182635 26 228 0.0 0.0 0.00 1.98 0.00 71 1016.9
20260831182548 26 228 0.0 0.0 0.00 1.98 0.00 69 1016.8
20260831182544 26 228 0.0 0.0 0.00 1.98 0.00 70 1016.8
20260831182537 26 228 0.0 0.0 0.00 1.98 0.00 70 1016.9
20260831182333 26 228 0.0 0.0 0.00 1.98 0.00 69 1016.8
20260831182233 26 228 0.0 0.0 0.00 1.98 0.00 69 1016.8
20260831182146 26 228 0.0 0.0 0.00 1.98 0.00 68 1016.8
20260831182132 26 228 0.0 0.0 0.00 1.98 0.00 67 1016.8
20260831182032 26 228 0.0 0.0 0.00 1.98 0.00 66 1016.8
20260831182022 26 228 0.0 0.0 0.00 1.98 0.00 66 1016.9
20260831181958 26 228 0.0 0.0 0.00 1.98 0.00 67 1016.8
20260831181954 26 228 0.0 0.0 0.00 1.98 0.00 68 1016.9
20260831181949 26 228 0.0 0.0 0.00 1.98 0.00 67 1016.9
20260831181646 26 228 0.0 0.0 0.00 1.98 0.00 68 1016.9
20260831181630 26 228 0.0 0.0 0.00 1.98 0.00 68 1016.9
20260831181543 26 228 0.0 0.0 0.00 1.98 0.00 70 1016.9
20260831181538 26 228 0.0 0.0 0.00 1.98 0.00 69 1016.9
20260831181522 26 228 0.0 0.0 0.00 1.98 0.00 69 1016.9
20260831181329 26 228 0.0 0.0 0.00 1.98 0.00 70 1017.0
20260831181229 26 228 0.0 0.0 0.00 1.98 0.00 69 1017.0
20260831181147 26 228 0.0 0.0 0.00 1.98 0.00 68 1017.0
20260831181128 26 228 0.0 0.0 0.00 1.98 0.00 68 1017.0
20260831181028 26 228 0.0 0.0 0.00 1.98 0.00 67 1017.0
20260831181022 26 228 0.0 0.0 0.00 1.98 0.00 67 1016.9
20260831180927 26 228 0.0 0.0 0.00 1.98 0.00 65 1016.9
20260831180910 26 228 0.0 0.0 0.00 1.98 0.00 67 1016.9
20260831180826 26 228 0.0 0.0 0.00 1.98 0.00 65 1016.8
20260831180753 26 228 0.0 0.0 0.00 1.98 0.00 66 1016.8
20260831180625 26 228 0.0 0.0 0.00 1.98 0.00 67 1016.9
20260831180533 26 228 0.0 0.0 0.00 1.98 0.00 67 1017.0
20260831180522 26 228 0.0 0.0 0.00 1.98 0.00 66 1016.9
20260831180338 26 228 0.0 0.0 0.00 1.98 0.00 68 1017.0
20260831180334 26 228 0.0 0.0 0.00 1.98 0.00 69 1017.1
20260831180143 26 228 0.0 0.0 0.00 1.98 0.00 68 1017.0
20260831180124 26 228 0.0 0.0 0.00 1.98 0.00 68 1017.0
20260831180024 26 228 0.0 0.0 0.00 1.98 0.00 68 1017.0
20260831180022 26 228 0.0 0.0 0.00 1.98 0.00 67 1016.8
20260831175941 26 228 0.0 0.0 0.00 1.98 0.00 67 1016.9
20260831175828 26 228 0.0 0.0 0.00 1.98 0.00 67 1016.9
20260831175704 26 228 0.0 0.0 0.00 1.98 0.00 67 1016.8
20260831175659 26 228 0.0 0.0 0.00 1.98 0.00 67 1016.7
20260831175649 26 228 0.0 0.0 0.00 1.98 0.00 67 1016.9
20260831175522 26 228 0.0 0.0 0.00 1.98 0.00 68 1016.8
20260831175426 26 228 0.0 0.0 0.00 1.98 0.00 68 1016.7
20260831175248 26 228 0.0 0.0 0.00 1.98 0.00 66 1016.7
20260831175117 26 228 0.0 0.0 0.00 1.98 0.00 67 1016.8
20260831175022 26 228 0.0 0.0 0.00 1.98 0.00 67 1017.0
20260831175016 26 228 0.0 0.0 0.00 1.98 0.00 67 1016.8
20260831174915 26 228 0.0 0.0 0.00 1.98 0.00 67 1016.9
20260831174815 26 228 0.0 0.0 0.00 1.98 0.00 65 1016.8
20260831174730 26 228 0.0 0.0 0.00 1.98 0.00 65 1016.9
20260831174722 26 228 0.0 0.0 0.00 1.98 0.00 65 1016.9
20260831174527 26 228 0.0 0.0 0.00 1.98 0.00 66 1017.0
20260831174524 26 228 0.0 0.0 0.00 1.98 0.00 66 1016.9
20260831174522 26 228 0.0 0.0 0.00 1.98 0.00 66 1017.0
20260831174314 26 228 0.0 0.0 0.00 1.98 0.00 65 1017.0
20260831174212 26 228 0.0 0.0 0.00 1.98 0.00 67 1017.0
20260831174112 26 228 0.0 0.0 0.00 1.98 0.00 67 1017.0
20260831174034 26 228 0.0 0.0 0.00 1.98 0.00 67 1016.9
20260831174022 26 228 0.0 0.0 0.00 1.98 0.00 67 1016.9
20260831173921 26 228 0.0 0.0 0.00 1.98 0.00 66 1016.9
20260831173725 26 228 0.0 0.0 0.00 1.98 0.00 64 1017.0
20260831173717 26 228 0.0 0.0 0.00 1.98 0.00 64 1016.9
20260831173522 26 228 0.0 0.0 0.00 1.98 0.00 63 1017.0
20260831173510 26 228 0.0 0.0 0.00 1.98 0.00 63 1016.9
20260831173409 26 228 0.0 0.0 0.00 1.98 0.00 63 1017.0
20260831173309 26 228 0.0 0.0 0.00 1.98 0.00 64 1017.0
20260831173208 26 228 0.0 0.0 0.00 1.98 0.00 63 1017.0
20260831173135 26 228 0.0 0.0 0.00 1.98 0.00 65 1017.0
20260831173106 26 228 0.0 0.0 0.00 1.98 0.00 64 1017.0
20260831173022 26 228 0.0 0.0 0.00 1.98 0.00 64 1017.1
20260831173019 26 228 0.0 0.0 0.00 1.98 0.00 64 1017.1
20260831173015 26 228 0.0 0.0 0.00 1.98 0.00 64 1017.1
20260831172805 26 228 0.0 0.0 0.00 1.98 0.00 65 1017.2
20260831172703 26 228 0.0 0.0 0.00 1.98 0.00 64 1017.2
20260831172634 26 228 0.0 0.0 0.00 1.98 0.00 66 1017.2
20260831172602 26 228 0.0 0.0 0.00 1.98 0.00 65 1017.2
20260831172522 26 228 0.0 0.0 0.00 1.98 0.00 65 1017.2
20260831172502 26 228 0.0 0.0 0.00 1.98 0.00 65 1017.2
20260831172400 26 228 0.0 0.0 0.00 1.98 0.00 64 1017.2
20260831172300 26 228 0.0 0.0 0.00 1.98 0.00 65 1017.2
20260831172201 26 228 0.0 0.0 0.00 1.98 0.00 65 1017.2
20260831172133 26 228 0.0 0.0 0.00 1.98 0.00 64 1017.2
20260831172100 26 228 0.0 0.0 0.00 1.98 0.00 64 1017.2
20260831172022 26 228 0.0 0.0 0.00 1.98 0.00 66 1017.2
20260831172000 26 228 0.0 0.0 0.00 1.98 0.00 66 1017.2
20260831171929 26 228 0.0 0.0 0.00 1.98 0.00 65 1017.2
20260831171858 26 228 0.0 0.0 0.00 1.98 0.00 66 1017.2
20260831171826 26 228 0.0 0.0 0.00 1.98 0.00 65 1017.2
20260831171821 26 228 0.0 0.0 0.00 1.98 0.00 64 1017.2
20260831171811 26 228 0.0 0.0 0.00 1.98 0.00 65 1017.2
20260831171522 26 228 0.0 0.0 0.00 1.98 0.00 66 1017.1
20260831171456 26 228 0.0 0.0 0.00 1.98 0.00 66 1017.1
20260831171356 26 228 0.0 0.0 0.00 1.98 0.00 66 1017.0
20260831171309 26 134 0.0 0.0 0.00 1.98 0.00 67 1017.0
20260831171305 26 194 0.0 0.0 0.00 1.98 0.00 66 1017.0
20260831171131 26 134 0.0 0.0 0.00 1.98 0.00 67 1017.0
20260831171055 26 134 0.0 0.0 0.00 1.98 0.00 68 1017.0
20260831171022 26 133 0.0 0.0 0.00 1.98 0.00 70 1017.0
20260831170954 26 133 0.0 0.0 0.00 1.98 0.00 70 1016.9
20260831170854 26 133 0.0 0.0 0.00 1.98 0.00 68 1016.8
20260831170754 26 133 0.0 0.0 0.00 1.98 0.00 68 1016.7
20260831170652 26 133 0.0 0.0 0.00 1.98 0.00 67 1016.7
20260831170631 26 133 0.0 0.0 0.00 1.98 0.00 67 1016.7
20260831170552 26 133 0.0 0.0 0.00 1.98 0.00 66 1016.6
20260831170522 26 133 0.0 0.0 0.00 1.98 0.00 66 1016.6
20260831170452 26 133 0.0 0.0 0.00 1.98 0.00 66 1016.6
20260831170351 26 133 0.0 0.0 0.00 1.98 0.00 65 1016.6
20260831170251 26 133 0.0 0.0 0.00 1.98 0.00 65 1016.5
20260831170151 26 133 0.0 0.0 0.00 1.98 0.00 65 1016.5
20260831170130 26 133 0.0 0.0 0.00 1.98 0.00 65 1016.5
20260831170050 26 133 0.0 0.0 0.00 1.98 0.00 64 1016.5
20260831170022 26 133 0.0 0.0 0.00 1.98 0.00 65 1016.6
20260831165950 26 133 0.0 0.0 0.00 1.98 0.00 65 1016.5
20260831165847 26 108 0.0 0.0 0.00 1.98 0.00 65 1016.5
20260831165747 26 108 0.0 0.0 0.00 1.98 0.00 65 1016.5
20260831165630 26 108 0.0 0.0 0.00 1.98 0.00 66 1016.5
20260831165546 26 108 0.0 0.0 0.00 1.98 0.00 66 1016.5
20260831165522 26 108 0.0 0.0 0.00 1.98 0.00 64 1016.6
20260831165444 26 108 0.0 0.0 0.00 1.98 0.00 64 1016.6
20260831165344 26 108 0.0 0.0 0.00 1.98 0.00 65 1016.6
20260831165244 26 108 0.0 0.0 0.00 1.98 0.00 68 1016.7
20260831165129 26 242 0.0 0.0 0.00 1.98 0.00 67 1016.7
20260831165043 26 242 0.0 0.0 0.00 1.98 0.00 67 1016.6
20260831165022 26 242 0.0 0.0 0.00 1.98 0.00 67 1016.7
20260831164942 26 247 0.0 0.0 0.00 1.98 0.00 67 1016.7
20260831164841 26 249 0.0 0.0 0.00 1.98 0.00 67 1016.8
20260831164741 26 249 0.0 0.0 0.00 1.98 0.00 67 1016.8
20260831164641 26 251 0.0 0.0 0.00 1.98 0.00 66 1016.8
20260831164630 26 252 0.0 0.0 0.00 1.98 0.00 66 1016.8
20260831164602 26 254 0.0 0.0 0.00 1.98 0.00 65 1016.7
20260831164522 26 261 0.0 0.0 0.00 1.98 0.00 64 1016.7
20260831164448 26 261 0.0 0.0 0.00 1.98 0.00 64 1016.7
20260831164239 26 261 0.0 0.0 0.00 1.98 0.00 66 1016.6
20260831164129 26 261 0.0 0.0 0.00 1.98 0.00 69 1016.5
20260831164038 26 261 0.0 0.0 0.00 1.98 0.00 71 1016.5
20260831164022 26 261 0.0 0.0 0.00 1.98 0.00 71 1016.6
20260831163938 26 262 0.0 0.0 0.00 1.98 0.00 71 1016.5
20260831163837 26 262 0.0 0.0 0.00 1.98 0.00 70 1016.5
20260831163749 25 262 0.0 0.0 0.00 1.98 0.00 73 1016.6
20260831163745 26 262 0.0 0.0 0.00 1.98 0.00 71 1016.6
20260831163628 25 262 0.0 0.0 0.00 1.98 0.00 73 1016.6
20260831163537 25 187 0.0 0.0 0.00 1.98 0.00 74 1016.7
20260831163531 25 187 0.0 0.0 0.00 1.98 0.00 74 1016.6
20260831163432 25 186 0.0 0.0 0.00 1.98 0.00 75 1016.6
20260831163330 25 186 0.0 0.0 0.00 1.98 0.00 74 1016.5
20260831163231 25 186 0.0 0.0 0.00 1.98 0.00 73 1016.5
20260831163125 25 186 0.0 0.0 0.00 1.98 0.00 72 1016.5
20260831163030 25 186 0.0 0.0 0.00 1.98 0.00 71 1016.5
20260831163023 25 186 0.0 0.0 0.00 1.98 0.00 71 1016.5
20260831162931 25 186 0.0 0.0 0.00 1.98 0.00 71 1016.5
20260831162842 25 182 0.0 0.0 0.00 1.98 0.00 70 1016.5
20260831162838 25 186 0.0 0.0 0.00 1.98 0.00 70 1016.4
20260831162629 25 182 0.0 0.0 0.00 1.98 0.00 70 1016.4
20260831162541 25 181 0.0 0.0 0.00 1.98 0.00 70 1016.3
20260831162537 25 181 0.0 0.0 0.00 1.98 0.00 70 1016.4
20260831162522 25 181 0.0 0.0 0.00 1.98 0.00 70 1016.3
20260831162327 25 181 0.0 0.0 0.00 1.98 0.00 72 1016.4
20260831162226 25 181 0.0 0.0 0.00 1.98 0.00 72 1016.4
20260831162126 25 181 0.0 0.0 0.00 1.98 0.00 71 1016.5
20260831162026 25 181 0.0 0.0 0.00 1.98 0.00 71 1016.4
20260831162022 25 181 0.0 0.0 0.00 1.98 0.00 70 1016.4
20260831161926 25 181 0.0 0.0 0.00 1.98 0.00 70 1016.4
20260831161824 25 181 0.0 0.0 0.00 1.98 0.00 71 1016.6
20260831161738 25 181 0.0 0.0 0.00 1.98 0.00 71 1016.5
20260831161729 25 181 0.0 0.0 0.00 1.98 0.00 72 1016.6
20260831161524 25 182 0.0 0.0 0.00 1.98 0.00 74 1016.8
20260831161522 25 182 0.0 0.0 0.00 1.98 0.00 74 1017.0
20260831161424 25 182 0.0 0.0 0.00 1.98 0.00 74 1016.9
20260831161322 25 182 0.0 0.0 0.00 1.98 0.00 73 1017.0
20260831161222 25 182 0.0 0.0 0.00 1.98 0.00 72 1017.0
20260831161122 25 182 0.0 0.0 0.00 1.98 0.00 72 1017.0
20260831161052 25 182 0.0 0.0 0.00 1.98 0.00 72 1017.0
20260831161021 25 182 0.0 0.0 0.00 1.98 0.00 72 1017.0
20260831160921 25 182 0.0 0.0 0.00 1.98 0.00 72 1017.0
20260831160820 25 182 0.0 0.0 0.00 1.98 0.00 72 1017.0
20260831160719 25 182 0.0 0.0 0.00 1.98 0.00 72 1016.9
20260831160620 25 182 0.0 0.0 0.00 1.98 0.00 72 1016.8
20260831160522 25 182 0.0 0.0 0.00 1.98 0.00 72 1016.9
20260831160518 25 182 0.0 0.0 0.00 1.98 0.00 72 1016.8
20260831160418 25 182 0.0 0.0 0.00 1.98 0.00 72 1016.8
20260831160317 25 182 0.0 0.0 0.00 1.98 0.00 72 1016.8
20260831160216 25 182 0.0 0.0 0.00 1.98 0.00 74 1016.8
20260831160136 25 182 0.0 0.0 0.00 1.98 0.00 74 1016.7
20260831160023 25 182 0.0 0.0 0.00 1.98 0.00 74 1016.7
20260831155812 24 169 0.0 0.0 0.00 1.98 0.00 74 1016.3
20260831155713 24 162 0.0 0.0 0.00 1.98 0.00 73 1014.6
20260831155610 24 161 0.0 0.0 0.00 1.98 0.00 73 1014.6
20260831155537 24 161 0.0 0.0 0.00 1.98 0.00 73 1014.6
20260831155510 24 161 0.0 0.0 0.00 1.98 0.00 73 1014.6
20260831155410 24 161 0.0 0.0 0.00 1.98 0.00 73 1014.6
20260831155307 24 132 0.0 0.0 0.00 1.98 0.00 73 1014.6
20260831155207 24 132 0.0 0.0 0.00 1.98 0.00 74 1014.7
20260831155123 24 132 0.0 0.0 0.00 1.98 0.00 74 1014.6
20260831155106 24 132 0.0 0.0 0.00 1.98 0.00 76 1014.6
20260831155022 24 92 0.0 0.0 0.00 1.98 0.00 77 1015.8
20260831155006 24 92 0.0 0.0 0.00 1.98 0.00 77 1015.7
20260831154905 24 92 0.0 0.0 0.00 1.98 0.00 77 1015.7
20260831154805 24 92 0.0 0.0 0.00 1.98 0.00 76 1015.0
20260831154705 24 92 0.0 0.0 0.00 1.98 0.00 76 1015.0
20260831154622 24 92 0.0 0.0 0.00 1.98 0.00 76 1015.0
20260831154604 24 92 0.0 0.0 0.00 1.98 0.00 75 1014.7
20260831154537 24 92 0.0 0.0 0.00 1.98 0.00 76 1016.4
20260831154504 24 92 0.0 0.0 0.00 1.98 0.00 76 1016.4
20260831154403 24 92 0.0 0.0 0.00 1.98 0.00 76 1016.4
20260831154303 24 92 0.0 0.0 0.00 1.98 0.00 78 1016.4
20260831154203 23 92 0.0 0.0 0.00 1.98 0.00 77 1015.7
20260831154120 23 92 0.0 0.0 0.00 1.98 0.00 77 1015.7
20260831154102 23 92 0.0 0.0 0.00 1.98 0.00 77 1015.7
20260831154052 23 92 0.0 0.0 0.00 1.98 0.00 76 1016.4
20260831154002 23 92 0.0 0.0 0.00 1.98 0.00 76 1016.4
20260831153929 23 92 0.0 0.0 0.00 1.98 0.00 76 1016.9
20260831153900 23 92 0.0 0.0 0.00 1.98 0.00 76 1016.4
20260831153826 23 92 0.0 0.0 0.00 1.98 0.00 76 1017.0
20260831153821 23 92 0.0 0.0 0.00 1.98 0.00 76 1016.7
20260831153812 23 92 0.0 0.0 0.00 1.98 0.00 76 1016.9
20260831153522 23 92 0.0 0.0 0.00 1.98 0.00 77 1017.1
20260831153457 23 92 0.0 0.0 0.00 1.98 0.00 77 1017.1
20260831153356 23 92 0.0 0.0 0.00 1.98 0.00 78 1017.1
20260831153256 23 92 0.0 0.0 0.00 1.98 0.00 79 1017.0
20260831153157 23 92 0.0 0.0 0.00 1.98 0.00 80 1017.1
20260831153121 23 92 0.0 0.0 0.00 1.98 0.00 80 1017.1
20260831153056 23 92 0.0 0.0 0.00 1.98 0.00 80 1017.1
20260831153037 23 92 0.0 0.0 0.00 1.98 0.00 80 1017.0
20260831152956 23 92 0.0 0.0 0.00 1.98 0.00 80 1017.0
20260831152855 23 92 0.0 0.0 0.00 1.98 0.00 80 1017.0
20260831152756 23 92 0.0 0.0 0.00 1.98 0.00 81 1016.9
20260831152655 23 92 0.0 0.0 0.00 1.98 0.00 81 1016.9
20260831152621 23 92 0.0 0.0 0.00 1.98 0.00 80 1016.9
20260831152554 23 92 0.0 0.0 0.00 1.98 0.00 80 1016.9
20260831152522 23 92 0.0 0.0 0.00 1.98 0.00 79 1017.0
20260831152453 23 92 0.0 0.0 0.00 1.98 0.00 79 1017.0
20260831152353 23 92 0.0 0.0 0.00 1.98 0.00 79 1017.0
20260831152252 23 92 0.0 0.0 0.00 1.98 0.00 80 1017.0
20260831152210 23 92 0.0 0.0 0.00 1.98 0.00 80 1017.0
20260831152205 23 92 0.0 0.0 0.00 1.98 0.00 80 1017.0
20260831152157 23 92 0.0 0.0 0.00 1.98 0.00 80 1017.0
20260831152022 23 92 0.0 0.0 0.00 1.98 0.00 80 1017.0
20260831151950 23 92 0.0 0.0 0.00 1.98 0.00 80 1017.0
20260831151850 23 92 0.0 0.0 0.00 1.98 0.00 80 1017.0
20260831151747 23 92 0.0 0.0 0.00 1.98 0.00 79 1017.0
20260831151647 23 92 0.0 0.0 0.00 1.98 0.00 79 1017.0
20260831151618 23 92 0.0 0.0 0.00 1.98 0.00 79 1017.0
20260831151546 23 92 0.0 0.0 0.00 1.98 0.00 79 1017.0
20260831151522 23 92 0.0 0.0 0.00 1.98 0.00 80 1017.0
20260831151446 23 92 0.0 0.0 0.00 1.98 0.00 80 1017.0
20260831151352 23 92 0.0 0.0 0.00 1.98 0.00 82 1016.9
20260831151348 23 92 0.0 0.0 0.00 1.98 0.00 81 1017.0
20260831151341 23 92 0.0 0.0 0.00 1.98 0.00 82 1016.9
20260831151334 23 92 0.0 0.0 0.00 1.98 0.00 80 1016.9
20260831151044 22 92 0.0 0.0 0.00 1.98 0.00 82 1017.0
20260831151022 22 90 0.0 0.0 0.00 1.98 0.00 80 1016.9
20260831150943 22 90 0.0 0.0 0.00 1.98 0.00 80 1016.9
20260831150843 22 90 0.0 0.0 0.00 1.98 0.00 80 1017.0
20260831150757 22 90 0.0 0.0 0.00 1.98 0.00 80 1016.8
20260831150751 22 90 0.0 0.0 0.00 1.98 0.00 79 1016.8
20260831150618 22 90 0.0 0.0 0.00 1.98 0.00 80 1016.8
20260831150541 22 90 0.0 0.0 0.00 1.98 0.00 80 1016.7
20260831150522 22 90 0.0 0.0 0.00 1.98 0.00 81 1016.8
20260831150441 22 90 0.0 0.0 0.00 1.98 0.00 81 1016.7
20260831150342 22 101 0.0 0.0 0.00 1.98 0.00 81 1016.8